Observation data for Coyanosa on 04/15/2021      Previous  Date  Next       Current Mesonet Observations  Soil Data  Daily Summary Page  Observations in Plain Language
KCO1 150500Z 05011KT 12/09 A3002 RMK A01 T01230087  RH  078%=      5-min Rain = 0
KCO1 150501Z 05012KT 12/09 A3002 RMK A01 T01230086  RH  078%=      5-min Rain = 0
KCO1 150502Z 06009KT 12/09 A3002 RMK A01 T01230087  RH  079%=      5-min Rain = 0
KCO1 150503Z 06009KT 12/09 A3002 RMK A01 T01230086  RH  079%=      5-min Rain = 0
KCO1 150504Z 06009KT 12/09 A3002 RMK A01 T01230086  RH  079%=      5-min Rain = 0
KCO1 150505Z 06010KT 12/09 A3002 RMK A01 T01230086  RH  079%=      5-min Rain = 0
KCO1 150506Z 05009KT 12/09 A3002 RMK A01 T01220086  RH  079%=      5-min Rain = 0
KCO1 150507Z 06010KT 12/09 A3002 RMK A01 T01220086  RH  079%=      5-min Rain = 0
KCO1 150508Z 06007KT 12/09 A3002 RMK A01 T01220086  RH  079%=      5-min Rain = 0
KCO1 150509Z 06008KT 12/09 A3002 RMK A01 T01220086  RH  079%=      5-min Rain = 0
KCO1 150510Z 06008KT 12/09 A3003 RMK A01 T01220086  RH  079%=      5-min Rain = 0
KCO1 150511Z 06009KT 12/09 A3002 RMK A01 T01220086  RH  079%=      5-min Rain = 0
KCO1 150512Z 06008KT 12/09 A3003 RMK A01 T01220086  RH  079%=      5-min Rain = 0
KCO1 150513Z 06011KT 12/09 A3003 RMK A01 T01220086  RH  079%=      5-min Rain = 0
KCO1 150514Z 06011KT 12/09 A3003 RMK A01 T01220086  RH  079%=      5-min Rain = 0
KCO1 150515Z 06009KT 12/09 A3003 RMK A01 T01220086  RH  079%=      5-min Rain = 0
KCO1 150516Z 06007KT 12/09 A3002 RMK A01 T01220086  RH  079%=      5-min Rain = 0
KCO1 150517Z 06009KT 12/09 A3002 RMK A01 T01220086  RH  079%=      5-min Rain = 0
KCO1 150518Z 06010KT 12/09 A3002 RMK A01 T01220086  RH  079%=      5-min Rain = 0
KCO1 150519Z 06011KT 12/09 A3002 RMK A01 T01220086  RH  079%=      5-min Rain = 0
KCO1 150520Z 06009KT 12/09 A3002 RMK A01 T01220086  RH  079%=      5-min Rain = 0
KCO1 150521Z 06009KT 12/09 A3002 RMK A01 T01220086  RH  079%=      5-min Rain = 0
KCO1 150522Z 06010KT 12/09 A3002 RMK A01 T01220086  RH  079%=      5-min Rain = 0
KCO1 150523Z 06009KT 12/09 A3002 RMK A01 T01220086  RH  079%=      5-min Rain = 0
KCO1 150524Z 06007KT 12/09 A3002 RMK A01 T01210086  RH  079%=      5-min Rain = 0
KCO1 150525Z 06008KT 12/09 A3002 RMK A01 T01210086  RH  079%=      5-min Rain = 0
KCO1 150526Z 06008KT 12/09 A3002 RMK A01 T01210086  RH  079%=      5-min Rain = 0
KCO1 150527Z 06009KT 12/09 A3002 RMK A01 T01210086  RH  079%=      5-min Rain = 0
KCO1 150528Z 06006KT 12/09 A3003 RMK A01 T01210086  RH  079%=      5-min Rain = 0
KCO1 150529Z 06005KT 12/09 A3003 RMK A01 T01210086  RH  079%=      5-min Rain = 0
KCO1 150530Z 05006KT 12/09 A3003 RMK A01 T01210085  RH  079%=      5-min Rain = 0
KCO1 150531Z 05006KT 12/09 A3003 RMK A01 T01210086  RH  079%=      5-min Rain = 0
KCO1 150532Z 05007KT 12/09 A3003 RMK A01 T01210085  RH  079%=      5-min Rain = 0
KCO1 150533Z 05004KT 12/09 A3003 RMK A01 T01210085  RH  079%=      5-min Rain = 0
KCO1 150534Z 05007KT 12/09 A3003 RMK A01 T01210085  RH  079%=      5-min Rain = 0
KCO1 150535Z 05007KT 12/09 A3003 RMK A01 T01210085  RH  079%=      5-min Rain = 0
KCO1 150536Z 06006KT 12/09 A3003 RMK A01 T01210086  RH  079%=      5-min Rain = 0
KCO1 150537Z 05009KT 12/09 A3003 RMK A01 T01210086  RH  079%=      5-min Rain = 0
KCO1 150538Z 06009KT 12/09 A3003 RMK A01 T01210086  RH  079%=      5-min Rain = 0
KCO1 150539Z 05008KT 12/09 A3003 RMK A01 T01210086  RH  079%=      5-min Rain = 0
KCO1 150540Z 06008KT 12/09 A3003 RMK A01 T01210086  RH  079%=      5-min Rain = 0
KCO1 150541Z 05005KT 12/09 A3003 RMK A01 T01210086  RH  079%=      5-min Rain = 0
KCO1 150542Z 05006KT 12/09 A3003 RMK A01 T01210085  RH  079%=      5-min Rain = 0
KCO1 150543Z 04007KT 12/09 A3003 RMK A01 T01210085  RH  079%=      5-min Rain = 0
KCO1 150544Z 05007KT 12/09 A3003 RMK A01 T01210085  RH  079%=      5-min Rain = 0
KCO1 150545Z 05007KT 12/09 A3003 RMK A01 T01210085  RH  079%=      5-min Rain = 0
KCO1 150546Z 05009KT 12/09 A3003 RMK A01 T01210086  RH  079%=      5-min Rain = 0
KCO1 150547Z 04009KT 12/09 A3003 RMK A01 T01210085  RH  079%=      5-min Rain = 0
KCO1 150548Z 05010KT 12/09 A3003 RMK A01 T01210085  RH  079%=      5-min Rain = 0
KCO1 150549Z 05010KT 12/09 A3003 RMK A01 T01210086  RH  079%=      5-min Rain = 0
KCO1 150550Z 06009KT 12/09 A3003 RMK A01 T01200086  RH  079%=      5-min Rain = 0
KCO1 150551Z 06009KT 12/09 A3003 RMK A01 T01200086  RH  079%=      5-min Rain = 0
KCO1 150552Z 05010KT 12/09 A3003 RMK A01 T01200086  RH  079%=      5-min Rain = 0
KCO1 150553Z 05012KT 12/09 A3003 RMK A01 T01200086  RH  080%=      5-min Rain = 0
KCO1 150554Z 05011KT 12/09 A3003 RMK A01 T01200086  RH  080%=      5-min Rain = 0
KCO1 150555Z 05011KT 12/09 A3003 RMK A01 T01190086  RH  080%=      5-min Rain = 0
KCO1 150556Z 06010KT 12/09 A3003 RMK A01 T01190087  RH  080%=      5-min Rain = 0
KCO1 150557Z 05011KT 12/09 A3003 RMK A01 T01190087  RH  080%=      5-min Rain = 0
KCO1 150558Z 05010KT 12/09 A3003 RMK A01 T01200087  RH  080%=      5-min Rain = 0
KCO1 150559Z 05008KT 12/09 A3003 RMK A01 T01200087  RH  080%=      5-min Rain = 0
KCO1 150600Z 05011KT 12/09 A3003 RMK A01 T01200087  RH  080%=      5-min Rain = 0
KCO1 150601Z 05008KT 12/09 A3003 RMK A01 T01200087  RH  080%=      5-min Rain = 0
KCO1 150602Z 05009KT 12/09 A3003 RMK A01 T01200087  RH  080%=      5-min Rain = 0
KCO1 150603Z 05010KT 12/09 A3003 RMK A01 T01200087  RH  080%=      5-min Rain = 0
KCO1 150604Z 06011KT 12/09 A3003 RMK A01 T01210087  RH  080%=      5-min Rain = 0
KCO1 150605Z 06009KT 12/09 A3003 RMK A01 T01210087  RH  080%=      5-min Rain = 0
KCO1 150606Z 06010KT 12/09 A3003 RMK A01 T01200087  RH  080%=      5-min Rain = 0
KCO1 150607Z 06009KT 12/09 A3003 RMK A01 T01200087  RH  080%=      5-min Rain = 0
KCO1 150608Z 06010KT 12/09 A3003 RMK A01 T01200087  RH  080%=      5-min Rain = 0
KCO1 150609Z 06011KT 12/09 A3003 RMK A01 T01200087  RH  080%=      5-min Rain = 0
KCO1 150610Z 06011KT 12/09 A3003 RMK A01 T01200087  RH  080%=      5-min Rain = 0
KCO1 150611Z 06011KT 12/09 A3003 RMK A01 T01200087  RH  080%=      5-min Rain = 0
KCO1 150612Z 05009KT 12/09 A3003 RMK A01 T01200087  RH  080%=      5-min Rain = 0
KCO1 150613Z 05010KT 12/09 A3003 RMK A01 T01200087  RH  080%=      5-min Rain = 0
KCO1 150614Z 06011KT 12/09 A3003 RMK A01 T01200087  RH  080%=      5-min Rain = 0
KCO1 150615Z 06011KT 12/09 A3003 RMK A01 T01200087  RH  080%=      5-min Rain = 0
KCO1 150616Z 06009KT 12/09 A3003 RMK A01 T01200087  RH  080%=      5-min Rain = 0
KCO1 150617Z 06010KT 12/09 A3003 RMK A01 T01200087  RH  080%=      5-min Rain = 0
KCO1 150618Z 05009KT 12/09 A3003 RMK A01 T01200087  RH  080%=      5-min Rain = 0
KCO1 150619Z 05008KT 12/09 A3003 RMK A01 T01200087  RH  080%=      5-min Rain = 0
KCO1 150620Z 05010KT 12/09 A3003 RMK A01 T01200087  RH  080%=      5-min Rain = 0
KCO1 150621Z 05011KT 12/09 A3003 RMK A01 T01200087  RH  080%=      5-min Rain = 0
KCO1 150622Z 05009KT 12/09 A3003 RMK A01 T01200087  RH  080%=      5-min Rain = 0
KCO1 150623Z 05011KT 12/09 A3003 RMK A01 T01200087  RH  080%=      5-min Rain = 0
KCO1 150624Z 06010KT 12/09 A3003 RMK A01 T01190087  RH  080%=      5-min Rain = 0
KCO1 150625Z 06009KT 12/09 A3003 RMK A01 T01190087  RH  081%=      5-min Rain = 0
KCO1 150626Z 06010KT 12/09 A3003 RMK A01 T01190087  RH  081%=      5-min Rain = 0
KCO1 150627Z 05009KT 12/09 A3002 RMK A01 T01190087  RH  081%=      5-min Rain = 0
KCO1 150628Z 05008KT 12/09 A3003 RMK A01 T01190087  RH  081%=      5-min Rain = 0
KCO1 150629Z 05009KT 12/09 A3003 RMK A01 T01190087  RH  081%=      5-min Rain = 0
KCO1 150630Z 06009KT 12/09 A3003 RMK A01 T01190087  RH  081%=      5-min Rain = 0
KCO1 150631Z 06009KT 12/09 A3003 RMK A01 T01190087  RH  081%=      5-min Rain = 0
KCO1 150632Z 06009KT 12/09 A3002 RMK A01 T01190087  RH  081%=      5-min Rain = 0
KCO1 150633Z 06009KT 12/09 A3002 RMK A01 T01190087  RH  081%=      5-min Rain = 0
KCO1 150634Z 06009KT 12/09 A3002 RMK A01 T01190087  RH  081%=      5-min Rain = 0
KCO1 150635Z 05011KT 12/09 A3002 RMK A01 T01190087  RH  081%=      5-min Rain = 0
KCO1 150636Z 06011KT 12/09 A3002 RMK A01 T01190087  RH  081%=      5-min Rain = 0
KCO1 150637Z 06011KT 12/09 A3002 RMK A01 T01190088  RH  081%=      5-min Rain = 0
KCO1 150638Z 06010KT 12/09 A3003 RMK A01 T01180087  RH  081%=      5-min Rain = 0
KCO1 150639Z 05009KT 12/09 A3003 RMK A01 T01180087  RH  081%=      5-min Rain = 0
KCO1 150640Z 05009KT 12/09 A3003 RMK A01 T01180087  RH  081%=      5-min Rain = 0
KCO1 150641Z 05009KT 12/09 A3003 RMK A01 T01180087  RH  081%=      5-min Rain = 0
KCO1 150642Z 05007KT 12/09 A3003 RMK A01 T01180087  RH  081%=      5-min Rain = 0
KCO1 150643Z 05009KT 12/09 A3003 RMK A01 T01180087  RH  081%=      5-min Rain = 0
KCO1 150644Z 05009KT 12/09 A3003 RMK A01 T01190087  RH  081%=      5-min Rain = 0
KCO1 150645Z 05011KT 12/09 A3003 RMK A01 T01180087  RH  081%=      5-min Rain = 0
KCO1 150646Z 05009KT 12/09 A3003 RMK A01 T01190088  RH  081%=      5-min Rain = 0
KCO1 150647Z 05009KT 12/09 A3003 RMK A01 T01180088  RH  081%=      5-min Rain = 0
KCO1 150648Z 06008KT 12/09 A3003 RMK A01 T01190088  RH  081%=      5-min Rain = 0
KCO1 150649Z 05008KT 12/09 A3003 RMK A01 T01190088  RH  081%=      5-min Rain = 0
KCO1 150650Z 06008KT 12/09 A3003 RMK A01 T01180087  RH  081%=      5-min Rain = 0
KCO1 150651Z 05008KT 12/09 A3003 RMK A01 T01180087  RH  081%=      5-min Rain = 0
KCO1 150652Z 06007KT 12/09 A3003 RMK A01 T01180087  RH  081%=      5-min Rain = 0
KCO1 150653Z 06009KT 12/09 A3003 RMK A01 T01180087  RH  081%=      5-min Rain = 0
KCO1 150654Z 06008KT 12/09 A3003 RMK A01 T01190088  RH  081%=      5-min Rain = 0
KCO1 150655Z 05009KT 12/09 A3003 RMK A01 T01190088  RH  081%=      5-min Rain = 0
KCO1 150656Z 05010KT 12/09 A3003 RMK A01 T01190088  RH  081%=      5-min Rain = 0
KCO1 150657Z 05007KT 12/09 A3003 RMK A01 T01190087  RH  081%=      5-min Rain = 0
KCO1 150658Z 05009KT 12/09 A3003 RMK A01 T01190087  RH  081%=      5-min Rain = 0
KCO1 150659Z 05009KT 12/09 A3003 RMK A01 T01190087  RH  081%=      5-min Rain = 0
KCO1 150700Z 05009KT 12/09 A3003 RMK A01 T01190087  RH  081%=      5-min Rain = 0
KCO1 150701Z 06010KT 12/09 A3003 RMK A01 T01190087  RH  081%=      5-min Rain = 0
KCO1 150702Z 05010KT 12/09 A3003 RMK A01 T01190087  RH  081%=      5-min Rain = 0
KCO1 150703Z 06010KT 12/09 A3003 RMK A01 T01190088  RH  081%=      5-min Rain = 0
KCO1 150704Z 06009KT 12/09 A3002 RMK A01 T01180087  RH  081%=      5-min Rain = 0
KCO1 150705Z 06011KT 12/09 A3002 RMK A01 T01180087  RH  081%=      5-min Rain = 0
KCO1 150706Z 05010KT 12/09 A3002 RMK A01 T01180087  RH  081%=      5-min Rain = 0
KCO1 150707Z 05011KT 12/09 A3002 RMK A01 T01180087  RH  081%=      5-min Rain = 0
KCO1 150708Z 05010KT 12/09 A3002 RMK A01 T01180087  RH  081%=      5-min Rain = 0
KCO1 150709Z 05009KT 12/09 A3002 RMK A01 T01170087  RH  081%=      5-min Rain = 0
KCO1 150710Z 05010KT 12/09 A3002 RMK A01 T01180087  RH  081%=      5-min Rain = 0
KCO1 150711Z 06009KT 12/09 A3002 RMK A01 T01170087  RH  082%=      5-min Rain = 0
KCO1 150712Z 05007KT 12/09 A3002 RMK A01 T01180087  RH  082%=      5-min Rain = 0
KCO1 150713Z 05007KT 12/09 A3002 RMK A01 T01180087  RH  081%=      5-min Rain = 0
KCO1 150714Z 05008KT 12/09 A3002 RMK A01 T01180087  RH  081%=      5-min Rain = 0
KCO1 150715Z 05010KT 12/09 A3002 RMK A01 T01180087  RH  081%=      5-min Rain = 0
KCO1 150716Z 06009KT 12/09 A3002 RMK A01 T01180087  RH  081%=      5-min Rain = 0
KCO1 150717Z 06009KT 12/09 A3002 RMK A01 T01180087  RH  081%=      5-min Rain = 0
KCO1 150718Z 05008KT 12/09 A3003 RMK A01 T01180087  RH  081%=      5-min Rain = 0
KCO1 150719Z 05008KT 12/09 A3003 RMK A01 T01180087  RH  081%=      5-min Rain = 0
KCO1 150720Z 06007KT 12/09 A3003 RMK A01 T01180087  RH  081%=      5-min Rain = 0
KCO1 150721Z 06009KT 12/09 A3003 RMK A01 T01180087  RH  081%=      5-min Rain = 0
KCO1 150722Z 05006KT 12/09 A3002 RMK A01 T01180087  RH  081%=      5-min Rain = 0
KCO1 150723Z 04005KT 12/09 A3002 RMK A01 T01170086  RH  081%=      5-min Rain = 0
KCO1 150724Z 05008KT 12/09 A3002 RMK A01 T01180086  RH  081%=      5-min Rain = 0
KCO1 150725Z 04009KT 12/09 A3002 RMK A01 T01180086  RH  081%=      5-min Rain = 0
KCO1 150726Z 05009KT 12/09 A3002 RMK A01 T01180086  RH  081%=      5-min Rain = 0
KCO1 150727Z 04007KT 12/09 A3002 RMK A01 T01180087  RH  081%=      5-min Rain = 0
KCO1 150728Z 05007KT 12/09 A3002 RMK A01 T01180087  RH  081%=      5-min Rain = 0
KCO1 150729Z 04007KT 12/09 A3002 RMK A01 T01180087  RH  081%=      5-min Rain = 0
KCO1 150730Z 05007KT 12/09 A3002 RMK A01 T01180087  RH  081%=      5-min Rain = 0
KCO1 150731Z 05008KT 12/09 A3002 RMK A01 T01170087  RH  081%=      5-min Rain = 0
KCO1 150732Z 04007KT 12/09 A3002 RMK A01 T01180087  RH  081%=      5-min Rain = 0
KCO1 150733Z 05007KT 12/09 A3002 RMK A01 T01180087  RH  081%=      5-min Rain = 0
KCO1 150734Z 04007KT 12/09 A3002 RMK A01 T01180087  RH  081%=      5-min Rain = 0
KCO1 150735Z 05009KT 12/09 A3002 RMK A01 T01180086  RH  081%=      5-min Rain = 0
KCO1 150736Z 04008KT 12/09 A3002 RMK A01 T01180086  RH  081%=      5-min Rain = 0
KCO1 150737Z 04008KT 12/09 A3002 RMK A01 T01180086  RH  081%=      5-min Rain = 0
KCO1 150738Z 04008KT 12/09 A3002 RMK A01 T01180086  RH  081%=      5-min Rain = 0
KCO1 150739Z 04007KT 12/09 A3002 RMK A01 T01180086  RH  081%=      5-min Rain = 0
KCO1 150740Z 04007KT 12/09 A3002 RMK A01 T01180086  RH  081%=      5-min Rain = 0
KCO1 150741Z 03006KT 12/09 A3001 RMK A01 T01180086  RH  081%=      5-min Rain = 0
KCO1 150742Z 03006KT 12/09 A3001 RMK A01 T01180086  RH  081%=      5-min Rain = 0
KCO1 150743Z 04007KT 12/09 A3001 RMK A01 T01180086  RH  081%=      5-min Rain = 0
KCO1 150744Z 03007KT 12/09 A3001 RMK A01 T01180086  RH  081%=      5-min Rain = 0
KCO1 150745Z 04007KT 12/09 A3001 RMK A01 T01190086  RH  081%=      5-min Rain = 0
KCO1 150746Z 04006KT 12/09 A3001 RMK A01 T01190087  RH  081%=      5-min Rain = 0
KCO1 150747Z 05008KT 12/09 A3001 RMK A01 T01190086  RH  081%=      5-min Rain = 0
KCO1 150748Z 05008KT 12/09 A3001 RMK A01 T01180086  RH  081%=      5-min Rain = 0
KCO1 150749Z 05007KT 12/09 A3001 RMK A01 T01180086  RH  081%=      5-min Rain = 0
KCO1 150750Z 05008KT 12/09 A3001 RMK A01 T01190087  RH  081%=      5-min Rain = 0
KCO1 150751Z 05007KT 12/09 A3001 RMK A01 T01190087  RH  081%=      5-min Rain = 0
KCO1 150752Z 05009KT 12/09 A3001 RMK A01 T01190086  RH  081%=      5-min Rain = 0
KCO1 150753Z 05010KT 12/09 A3001 RMK A01 T01180086  RH  081%=      5-min Rain = 0
KCO1 150754Z 05007KT 12/09 A3001 RMK A01 T01190086  RH  081%=      5-min Rain = 0
KCO1 150755Z 05009KT 12/09 A3001 RMK A01 T01190087  RH  081%=      5-min Rain = 0
KCO1 150756Z 05010KT 12/09 A3001 RMK A01 T01190087  RH  081%=      5-min Rain = 0
KCO1 150757Z 05009KT 12/09 A3001 RMK A01 T01190087  RH  081%=      5-min Rain = 0
KCO1 150758Z 06008KT 12/09 A3001 RMK A01 T01190087  RH  081%=      5-min Rain = 0
KCO1 150759Z 06008KT 12/09 A3001 RMK A01 T01190087  RH  080%=      5-min Rain = 0
KCO1 150800Z 06010KT 12/09 A3001 RMK A01 T01200087  RH  080%=      5-min Rain = 0
KCO1 150801Z 06009KT 12/09 A3001 RMK A01 T01200087  RH  080%=      5-min Rain = 0
KCO1 150802Z 06009KT 12/09 A3002 RMK A01 T01200087  RH  080%=      5-min Rain = 0
KCO1 150803Z 05007KT 12/09 A3001 RMK A01 T01200087  RH  080%=      5-min Rain = 0
KCO1 150804Z 05007KT 12/09 A3001 RMK A01 T01200087  RH  080%=      5-min Rain = 0
KCO1 150805Z 05009KT 12/09 A3001 RMK A01 T01210087  RH  080%=      5-min Rain = 0
KCO1 150806Z 06010KT 12/09 A3001 RMK A01 T01210087  RH  080%=      5-min Rain = 0
KCO1 150807Z 06008KT 12/09 A3002 RMK A01 T01210087  RH  080%=      5-min Rain = 0
KCO1 150808Z 05008KT 12/09 A3001 RMK A01 T01210087  RH  080%=      5-min Rain = 0
KCO1 150809Z 05008KT 12/09 A3001 RMK A01 T01210087  RH  080%=      5-min Rain = 0
KCO1 150810Z 05008KT 12/09 A3001 RMK A01 T01210087  RH  080%=      5-min Rain = 0
KCO1 150811Z 05008KT 12/09 A3001 RMK A01 T01210087  RH  080%=      5-min Rain = 0
KCO1 150812Z 05008KT 12/09 A3001 RMK A01 T01210087  RH  080%=      5-min Rain = 0
KCO1 150813Z 05007KT 12/09 A3001 RMK A01 T01210087  RH  080%=      5-min Rain = 0
KCO1 150814Z 04007KT 12/09 A3001 RMK A01 T01210087  RH  080%=      5-min Rain = 0
KCO1 150815Z 05007KT 12/09 A3001 RMK A01 T01210087  RH  080%=      5-min Rain = 0
KCO1 150816Z 05008KT 12/09 A3001 RMK A01 T01210087  RH  079%=      5-min Rain = 0
KCO1 150817Z 05008KT 12/09 A3001 RMK A01 T01220087  RH  079%=      5-min Rain = 0
KCO1 150818Z 05008KT 12/09 A3001 RMK A01 T01210087  RH  079%=      5-min Rain = 0
KCO1 150819Z 05007KT 12/09 A3001 RMK A01 T01210087  RH  079%=      5-min Rain = 0
KCO1 150820Z 06008KT 12/09 A3001 RMK A01 T01210087  RH  079%=      5-min Rain = 0
KCO1 150821Z 05009KT 12/09 A3001 RMK A01 T01220087  RH  079%=      5-min Rain = 0
KCO1 150822Z 06008KT 12/09 A3001 RMK A01 T01220087  RH  079%=      5-min Rain = 0
KCO1 150823Z 05007KT 12/09 A3001 RMK A01 T01220087  RH  079%=      5-min Rain = 0
KCO1 150824Z 05009KT 12/09 A30 RMK A01 T01220087  RH  079%=      5-min Rain = 0
KCO1 150825Z 06008KT 12/09 A30 RMK A01 T01220087  RH  079%=      5-min Rain = 0
KCO1 150826Z 06007KT 12/09 A30 RMK A01 T01220087  RH  079%=      5-min Rain = 0
KCO1 150827Z 06008KT 12/09 A30 RMK A01 T01220087  RH  079%=      5-min Rain = 0
KCO1 150828Z 06009KT 12/09 A30 RMK A01 T01220087  RH  079%=      5-min Rain = 0
KCO1 150829Z 06008KT 12/09 A30 RMK A01 T01220087  RH  079%=      5-min Rain = 0
KCO1 150830Z 04008KT 12/09 A30 RMK A01 T01220087  RH  079%=      5-min Rain = 0
KCO1 150831Z 05009KT 12/09 A30 RMK A01 T01220087  RH  079%=      5-min Rain = 0
KCO1 150832Z 05008KT 12/09 A30 RMK A01 T01220087  RH  079%=      5-min Rain = 0
KCO1 150833Z 05010KT 12/09 A30 RMK A01 T01220087  RH  079%=      5-min Rain = 0
KCO1 150834Z 05009KT 12/09 A30 RMK A01 T01220087  RH  079%=      5-min Rain = 0
KCO1 150835Z 05009KT 12/09 A30 RMK A01 T01230087  RH  079%=      5-min Rain = 0
KCO1 150836Z 05009KT 12/09 A30 RMK A01 T01230087  RH  079%=      5-min Rain = 0
KCO1 150837Z 05008KT 12/09 A30 RMK A01 T01230087  RH  079%=      5-min Rain = 0
KCO1 150838Z 05008KT 12/09 A30 RMK A01 T01230087  RH  079%=      5-min Rain = 0
KCO1 150839Z 05009KT 12/09 A30 RMK A01 T01220086  RH  079%=      5-min Rain = 0
KCO1 150840Z 04008KT 12/09 A30 RMK A01 T01230087  RH  079%=      5-min Rain = 0
KCO1 150841Z 04010KT 12/09 A30 RMK A01 T01230087  RH  079%=      5-min Rain = 0
KCO1 150842Z 04009KT 12/09 A30 RMK A01 T01230087  RH  079%=      5-min Rain = 0
KCO1 150843Z 04008KT 12/09 A30 RMK A01 T01230087  RH  079%=      5-min Rain = 0
KCO1 150844Z 05007KT 12/09 A30 RMK A01 T01230087  RH  079%=      5-min Rain = 0
KCO1 150845Z 03009KT 12/09 A30 RMK A01 T01230087  RH  079%=      5-min Rain = 0
KCO1 150846Z 04009KT 12/09 A30 RMK A01 T01240087  RH  078%=      5-min Rain = 0
KCO1 150847Z 04010KT 12/09 A3001 RMK A01 T01240087  RH  078%=      5-min Rain = 0
KCO1 150848Z 05010KT 12/09 A3001 RMK A01 T01240087  RH  078%=      5-min Rain = 0
KCO1 150849Z 04009KT 12/09 A3001 RMK A01 T01240087  RH  078%=      5-min Rain = 0
KCO1 150850Z 04009KT 12/09 A30 RMK A01 T01240087  RH  078%=      5-min Rain = 0
KCO1 150851Z 04008KT 12/09 A30 RMK A01 T01240087  RH  078%=      5-min Rain = 0
KCO1 150852Z 05008KT 12/09 A30 RMK A01 T01240087  RH  078%=      5-min Rain = 0
KCO1 150853Z 05010KT 12/09 A30 RMK A01 T01240087  RH  078%=      5-min Rain = 0
KCO1 150854Z 05010KT 12/09 A30 RMK A01 T01240087  RH  078%=      5-min Rain = 0
KCO1 150855Z 06009KT 12/09 A30 RMK A01 T01240087  RH  078%=      5-min Rain = 0
KCO1 150856Z 05008KT 12/09 A30 RMK A01 T01240087  RH  078%=      5-min Rain = 0
KCO1 150857Z 04008KT 12/09 A30 RMK A01 T01240087  RH  078%=      5-min Rain = 0
KCO1 150858Z 03009KT 12/09 A30 RMK A01 T01240087  RH  078%=      5-min Rain = 0
KCO1 150859Z 04009KT 12/09 A30 RMK A01 T01240087  RH  078%=      5-min Rain = 0
KCO1 150900Z 04008KT 12/09 A30 RMK A01 T01240087  RH  078%=      5-min Rain = 0
KCO1 150901Z 04009KT 12/09 A30 RMK A01 T01240087  RH  078%=      5-min Rain = 0
KCO1 150902Z 05009KT 12/09 A30 RMK A01 T01240087  RH  078%=      5-min Rain = 0
KCO1 150903Z 04009KT 12/09 A30 RMK A01 T01240087  RH  078%=      5-min Rain = 0
KCO1 150904Z 04008KT 12/09 A30 RMK A01 T01240087  RH  078%=      5-min Rain = 0
KCO1 150905Z 05009KT 12/09 A30 RMK A01 T01240087  RH  078%=      5-min Rain = 0
KCO1 150906Z 04008KT 12/09 A30 RMK A01 T01240087  RH  078%=      5-min Rain = 0
KCO1 150907Z 04010KT 12/09 A30 RMK A01 T01240087  RH  078%=      5-min Rain = 0
KCO1 150908Z 04009KT 12/09 A30 RMK A01 T01240087  RH  078%=      5-min Rain = 0
KCO1 150909Z 04008KT 12/09 A30 RMK A01 T01240087  RH  078%=      5-min Rain = 0
KCO1 150910Z 04008KT 12/09 A30 RMK A01 T01240087  RH  078%=      5-min Rain = 0
KCO1 150911Z 04007KT 12/09 A30 RMK A01 T01240087  RH  078%=      5-min Rain = 0
KCO1 150912Z 04007KT 12/09 A30 RMK A01 T01240087  RH  078%=      5-min Rain = 0
KCO1 150913Z 04008KT 13/09 A30 RMK A01 T01250087  RH  078%=      5-min Rain = 0
KCO1 150914Z 04010KT 12/09 A30 RMK A01 T01240087  RH  078%=      5-min Rain = 0
KCO1 150915Z 05010KT 12/09 A30 RMK A01 T01240087  RH  078%=      5-min Rain = 0
KCO1 150916Z 04010KT 13/09 A30 RMK A01 T01250088  RH  078%=      5-min Rain = 0
KCO1 150917Z 05010KT 12/09 A30 RMK A01 T01240087  RH  078%=      5-min Rain = 0
KCO1 150918Z 05011KT 12/09 A30 RMK A01 T01240088  RH  079%=      5-min Rain = 0
KCO1 150919Z 05011KT 12/09 A30 RMK A01 T01230087  RH  079%=      5-min Rain = 0
KCO1 150920Z 05011KT 12/09 A30 RMK A01 T01240088  RH  079%=      5-min Rain = 0
KCO1 150921Z 05010KT 12/09 A30 RMK A01 T01240088  RH  079%=      5-min Rain = 0
KCO1 150922Z 06010KT 12/09 A30 RMK A01 T01240088  RH  079%=      5-min Rain = 0
KCO1 150923Z 06010KT 12/09 A30 RMK A01 T01240088  RH  079%=      5-min Rain = 0
KCO1 150924Z 06007KT 12/09 A30 RMK A01 T01230088  RH  079%=      5-min Rain = 0
KCO1 150925Z 06009KT 12/09 A30 RMK A01 T01240088  RH  079%=      5-min Rain = 0
KCO1 150926Z 06009KT 12/09 A30 RMK A01 T01240088  RH  079%=      5-min Rain = 0
KCO1 150927Z 06008KT 12/09 A30 RMK A01 T01230088  RH  079%=      5-min Rain = 0
KCO1 150928Z 06008KT 12/09 A30 RMK A01 T01240088  RH  079%=      5-min Rain = 0
KCO1 150929Z 05008KT 12/09 A30 RMK A01 T01240088  RH  079%=      5-min Rain = 0
KCO1 150930Z 05008KT 12/09 A30 RMK A01 T01240088  RH  079%=      5-min Rain = 0
KCO1 150931Z 05007KT 12/09 A30 RMK A01 T01230088  RH  079%=      5-min Rain = 0
KCO1 150932Z 04007KT 12/09 A30 RMK A01 T01230088  RH  079%=      5-min Rain = 0
KCO1 150933Z 04008KT 12/09 A30 RMK A01 T01240088  RH  079%=      5-min Rain = 0
KCO1 150934Z 04009KT 12/09 A30 RMK A01 T01240088  RH  079%=      5-min Rain = 0
KCO1 150935Z 04006KT 12/09 A30 RMK A01 T01240088  RH  079%=      5-min Rain = 0
KCO1 150936Z 04007KT 12/09 A30 RMK A01 T01240088  RH  079%=      5-min Rain = 0
KCO1 150937Z 05008KT 12/09 A30 RMK A01 T01240088  RH  079%=      5-min Rain = 0
KCO1 150938Z 04008KT 12/09 A30 RMK A01 T01240087  RH  079%=      5-min Rain = 0
KCO1 150939Z 05009KT 12/09 A30 RMK A01 T01240088  RH  079%=      5-min Rain = 0
KCO1 150940Z 04008KT 12/09 A30 RMK A01 T01230088  RH  079%=      5-min Rain = 0
KCO1 150941Z 04009KT 12/09 A3001 RMK A01 T01230088  RH  079%=      5-min Rain = 0
KCO1 150942Z 04009KT 12/09 A3001 RMK A01 T01230088  RH  079%=      5-min Rain = 0
KCO1 150943Z 04009KT 12/09 A3001 RMK A01 T01230088  RH  079%=      5-min Rain = 0
KCO1 150944Z 04009KT 12/09 A3001 RMK A01 T01230088  RH  079%=      5-min Rain = 0
KCO1 150945Z 04008KT 12/09 A3001 RMK A01 T01230088  RH  079%=      5-min Rain = 0
KCO1 150946Z 04008KT 12/09 A3001 RMK A01 T01230088  RH  079%=      5-min Rain = 0
KCO1 150947Z 05009KT 12/09 A3001 RMK A01 T01230088  RH  079%=      5-min Rain = 0
KCO1 150948Z 05009KT 12/09 A3001 RMK A01 T01230088  RH  079%=      5-min Rain = 0
KCO1 150949Z 06007KT 12/09 A3001 RMK A01 T01230088  RH  079%=      5-min Rain = 0
KCO1 150950Z 06008KT 12/09 A3001 RMK A01 T01230088  RH  079%=      5-min Rain = 0
KCO1 150951Z 07007KT 12/09 A3001 RMK A01 T01230088  RH  079%=      5-min Rain = 0
KCO1 150952Z 06008KT 12/09 A3001 RMK A01 T01230088  RH  079%=      5-min Rain = 0
KCO1 150953Z 07009KT 12/09 A30 RMK A01 T01230088  RH  079%=      5-min Rain = 0
KCO1 150954Z 07008KT 12/09 A30 RMK A01 T01240088  RH  079%=      5-min Rain = 0
KCO1 150955Z 07008KT 12/09 A30 RMK A01 T01240088  RH  079%=      5-min Rain = 0
KCO1 150956Z 07008KT 12/09 A30 RMK A01 T01230088  RH  079%=      5-min Rain = 0
KCO1 150957Z 06008KT 12/09 A30 RMK A01 T01230088  RH  079%=      5-min Rain = 0
KCO1 150958Z 06007KT 12/09 A30 RMK A01 T01230088  RH  079%=      5-min Rain = 0
KCO1 150959Z 05008KT 12/09 A30 RMK A01 T01230088  RH  079%=      5-min Rain = 0
KCO1 151000Z 05009KT 12/09 A30 RMK A01 T01230088  RH  079%=      5-min Rain = 0
KCO1 151001Z 05009KT 12/09 A30 RMK A01 T01230088  RH  079%=      5-min Rain = 0
KCO1 151002Z 06009KT 12/09 A30 RMK A01 T01230088  RH  079%=      5-min Rain = 0
KCO1 151003Z 06008KT 12/09 A30 RMK A01 T01230088  RH  079%=      5-min Rain = 0
KCO1 151004Z 06008KT 12/09 A30 RMK A01 T01230088  RH  079%=      5-min Rain = 0
KCO1 151005Z 07009KT 12/09 A3001 RMK A01 T01230088  RH  079%=      5-min Rain = 0
KCO1 151006Z 07009KT 12/09 A3001 RMK A01 T01230088  RH  079%=      5-min Rain = 0
KCO1 151007Z 06009KT 12/09 A3001 RMK A01 T01230088  RH  079%=      5-min Rain = 0
KCO1 151008Z 06008KT 12/09 A3001 RMK A01 T01220087  RH  079%=      5-min Rain = 0
KCO1 151009Z 07009KT 12/09 A3001 RMK A01 T01230088  RH  079%=      5-min Rain = 0
KCO1 151010Z 06008KT 12/09 A3001 RMK A01 T01230088  RH  079%=      5-min Rain = 0
KCO1 151011Z 06008KT 12/09 A3001 RMK A01 T01230088  RH  079%=      5-min Rain = 0
KCO1 151012Z 07007KT 12/09 A3001 RMK A01 T01230088  RH  079%=      5-min Rain = 0
KCO1 151013Z 06007KT 12/09 A30 RMK A01 T01230088  RH  079%=      5-min Rain = 0
KCO1 151014Z 06008KT 12/09 A30 RMK A01 T01230088  RH  079%=      5-min Rain = 0
KCO1 151015Z 04006KT 12/09 A30 RMK A01 T01230088  RH  079%=      5-min Rain = 0
KCO1 151016Z 06006KT 12/09 A30 RMK A01 T01230088  RH  079%=      5-min Rain = 0
KCO1 151017Z 05007KT 12/09 A30 RMK A01 T01230088  RH  079%=      5-min Rain = 0
KCO1 151018Z 05007KT 12/09 A30 RMK A01 T01240088  RH  079%=      5-min Rain = 0
KCO1 151019Z 06008KT 12/09 A30 RMK A01 T01230088  RH  079%=      5-min Rain = 0
KCO1 151020Z 05007KT 12/09 A30 RMK A01 T01240088  RH  079%=      5-min Rain = 0
KCO1 151021Z 05007KT 12/09 A30 RMK A01 T01240088  RH  079%=      5-min Rain = 0
KCO1 151022Z 05008KT 12/09 A3001 RMK A01 T01230088  RH  079%=      5-min Rain = 0
KCO1 151023Z 05009KT 12/09 A3001 RMK A01 T01230088  RH  079%=      5-min Rain = 0
KCO1 151024Z 05008KT 12/09 A3001 RMK A01 T01230088  RH  079%=      5-min Rain = 0
KCO1 151025Z 06006KT 12/09 A3001 RMK A01 T01230088  RH  079%=      5-min Rain = 0
KCO1 151026Z 05006KT 12/09 A3001 RMK A01 T01220087  RH  079%=      5-min Rain = 0
KCO1 151027Z 05005KT 12/09 A3001 RMK A01 T01220088  RH  079%=      5-min Rain = 0
KCO1 151028Z 04007KT 12/09 A3001 RMK A01 T01230088  RH  079%=      5-min Rain = 0
KCO1 151029Z 06007KT 12/09 A3001 RMK A01 T01230088  RH  079%=      5-min Rain = 0
KCO1 151030Z 04006KT 12/09 A3001 RMK A01 T01230088  RH  079%=      5-min Rain = 0
KCO1 151031Z 05007KT 12/09 A3002 RMK A01 T01220088  RH  079%=      5-min Rain = 0
KCO1 151032Z 05007KT 12/09 A3002 RMK A01 T01230088  RH  079%=      5-min Rain = 0
KCO1 151033Z 04007KT 12/09 A3002 RMK A01 T01230088  RH  079%=      5-min Rain = 0
KCO1 151034Z 04006KT 12/09 A3001 RMK A01 T01220088  RH  079%=      5-min Rain = 0
KCO1 151035Z 05006KT 12/09 A3001 RMK A01 T01230088  RH  079%=      5-min Rain = 0
KCO1 151036Z 06007KT 12/09 A3001 RMK A01 T01230088  RH  079%=      5-min Rain = 0
KCO1 151037Z 05007KT 12/09 A3001 RMK A01 T01230088  RH  079%=      5-min Rain = 0
KCO1 151038Z 05006KT 12/09 A3001 RMK A01 T01230088  RH  079%=      5-min Rain = 0
KCO1 151039Z 06007KT 12/09 A3001 RMK A01 T01230088  RH  079%=      5-min Rain = 0
KCO1 151040Z 06007KT 12/09 A3001 RMK A01 T01230088  RH  079%=      5-min Rain = 0
KCO1 151041Z 06007KT 12/09 A3001 RMK A01 T01230088  RH  079%=      5-min Rain = 0
KCO1 151042Z 06007KT 12/09 A3001 RMK A01 T01230088  RH  079%=      5-min Rain = 0
KCO1 151043Z 06008KT 12/09 A3001 RMK A01 T01220088  RH  079%=      5-min Rain = 0
KCO1 151044Z 06007KT 12/09 A3001 RMK A01 T01230088  RH  079%=      5-min Rain = 0
KCO1 151045Z 06007KT 12/09 A3001 RMK A01 T01220088  RH  079%=      5-min Rain = 0
KCO1 151046Z 05006KT 12/09 A3001 RMK A01 T01230088  RH  080%=      5-min Rain = 0
KCO1 151047Z 04006KT 12/09 A3001 RMK A01 T01230088  RH  079%=      5-min Rain = 0
KCO1 151048Z 04008KT 12/09 A3001 RMK A01 T01230088  RH  079%=      5-min Rain = 0
KCO1 151049Z 05008KT 12/09 A3001 RMK A01 T01230088  RH  080%=      5-min Rain = 0
KCO1 151050Z 05007KT 12/09 A3001 RMK A01 T01230088  RH  080%=      5-min Rain = 0
KCO1 151051Z 05007KT 12/09 A30 RMK A01 T01230089  RH  080%=      5-min Rain = 0
KCO1 151052Z 06007KT 12/09 A30 RMK A01 T01220088  RH  080%=      5-min Rain = 0
KCO1 151053Z 05008KT 12/09 A30 RMK A01 T01220088  RH  080%=      5-min Rain = 0
KCO1 151054Z 05008KT 12/09 A30 RMK A01 T01220088  RH  080%=      5-min Rain = 0
KCO1 151055Z 05007KT 12/09 A30 RMK A01 T01220088  RH  080%=      5-min Rain = 0
KCO1 151056Z 04008KT 12/09 A30 RMK A01 T01220088  RH  080%=      5-min Rain = 0
KCO1 151057Z 05008KT 12/09 A30 RMK A01 T01220088  RH  080%=      5-min Rain = 0
KCO1 151058Z 06007KT 12/09 A30 RMK A01 T01220088  RH  080%=      5-min Rain = 0
KCO1 151059Z 06009KT 12/09 A30 RMK A01 T01220088  RH  080%=      5-min Rain = 0
KCO1 151100Z 06008KT 12/09 A30 RMK A01 T01220088  RH  080%=      5-min Rain = 0
KCO1 151101Z 05008KT 12/09 A30 RMK A01 T01220088  RH  080%=      5-min Rain = 0
KCO1 151102Z 05008KT 12/09 A30 RMK A01 T01220088  RH  080%=      5-min Rain = 0
KCO1 151103Z 05007KT 12/09 A30 RMK A01 T01220088  RH  080%=      5-min Rain = 0
KCO1 151104Z 05008KT 12/09 A2999 RMK A01 T01220088  RH  080%=      5-min Rain = 0
KCO1 151105Z 05008KT 12/09 A2999 RMK A01 T01220088  RH  080%=      5-min Rain = 0
KCO1 151106Z 04008KT 12/09 A2999 RMK A01 T01220088  RH  080%=      5-min Rain = 0
KCO1 151107Z 05008KT 12/09 A2999 RMK A01 T01220088  RH  080%=      5-min Rain = 0
KCO1 151108Z 05007KT 12/09 A2999 RMK A01 T01210088  RH  080%=      5-min Rain = 0
KCO1 151109Z 05009KT 12/09 A2999 RMK A01 T01210088  RH  080%=      5-min Rain = 0
KCO1 151110Z 05009KT 12/09 A2999 RMK A01 T01210088  RH  080%=      5-min Rain = 0
KCO1 151111Z 06008KT 12/09 A2999 RMK A01 T01210087  RH  080%=      5-min Rain = 0
KCO1 151112Z 06009KT 12/09 A30 RMK A01 T01210088  RH  080%=      5-min Rain = 0
KCO1 151113Z 05009KT 12/09 A30 RMK A01 T01210088  RH  080%=      5-min Rain = 0
KCO1 151114Z 06009KT 12/09 A30 RMK A01 T01200088  RH  081%=      5-min Rain = 0
KCO1 151115Z 06009KT 12/09 A30 RMK A01 T01200088  RH  081%=      5-min Rain = 0
KCO1 151116Z 05007KT 12/09 A30 RMK A01 T01200088  RH  081%=      5-min Rain = 0
KCO1 151117Z 06008KT 12/09 A30 RMK A01 T01200088  RH  081%=      5-min Rain = 0
KCO1 151118Z 07009KT 12/09 A30 RMK A01 T01200088  RH  081%=      5-min Rain = 0
KCO1 151119Z 06009KT 12/09 A30 RMK A01 T01200088  RH  081%=      5-min Rain = 0
KCO1 151120Z 07009KT 12/09 A2999 RMK A01 T01200088  RH  081%=      5-min Rain = 0
KCO1 151121Z 06006KT 12/09 A2999 RMK A01 T01200088  RH  081%=      5-min Rain = 0
KCO1 151122Z 06006KT 12/09 A2999 RMK A01 T01200088  RH  081%=      5-min Rain = 0
KCO1 151123Z 06007KT 12/09 A2999 RMK A01 T01200088  RH  081%=      5-min Rain = 0
KCO1 151124Z 06008KT 12/09 A2999 RMK A01 T01200088  RH  081%=      5-min Rain = 0
KCO1 151125Z 07008KT 12/09 A2999 RMK A01 T01200088  RH  081%=      5-min Rain = 0
KCO1 151126Z 06007KT 12/09 A2999 RMK A01 T01200088  RH  081%=      5-min Rain = 0
KCO1 151127Z 06008KT 12/09 A2999 RMK A01 T01200088  RH  081%=      5-min Rain = 0
KCO1 151128Z 06007KT 12/09 A2999 RMK A01 T01200088  RH  081%=      5-min Rain = 0
KCO1 151129Z 06006KT 12/09 A2999 RMK A01 T01200088  RH  081%=      5-min Rain = 0
KCO1 151130Z 07007KT 12/09 A2999 RMK A01 T01200088  RH  081%=      5-min Rain = 0
KCO1 151131Z 07008KT 12/09 A2999 RMK A01 T01200088  RH  081%=      5-min Rain = 0
KCO1 151132Z 07007KT 12/09 A2999 RMK A01 T01200088  RH  081%=      5-min Rain = 0
KCO1 151133Z 07008KT 12/09 A2999 RMK A01 T01200088  RH  081%=      5-min Rain = 0
KCO1 151134Z 06007KT 12/09 A2999 RMK A01 T01200088  RH  081%=      5-min Rain = 0
KCO1 151135Z 06009KT 12/09 A2999 RMK A01 T01200088  RH  081%=      5-min Rain = 0
KCO1 151136Z 06008KT 12/09 A2999 RMK A01 T01200088  RH  081%=      5-min Rain = 0
KCO1 151137Z 07008KT 12/09 A2999 RMK A01 T01190088  RH  081%=      5-min Rain = 0
KCO1 151138Z 06008KT 12/09 A2999 RMK A01 T01190088  RH  081%=      5-min Rain = 0
KCO1 151139Z 06008KT 12/09 A2999 RMK A01 T01190088  RH  081%=      5-min Rain = 0
KCO1 151140Z 06006KT 12/09 A2999 RMK A01 T01190089  RH  081%=      5-min Rain = 0
KCO1 151141Z 06007KT 12/09 A2999 RMK A01 T01190089  RH  081%=      5-min Rain = 0
KCO1 151142Z 06008KT 12/09 A2999 RMK A01 T01190089  RH  081%=      5-min Rain = 0
KCO1 151143Z 06008KT 12/09 A2999 RMK A01 T01190089  RH  081%=      5-min Rain = 0
KCO1 151144Z 06007KT 12/09 A2999 RMK A01 T01190089  RH  082%=      5-min Rain = 0
KCO1 151145Z 07008KT 12/09 A30 RMK A01 T01190089  RH  082%=      5-min Rain = 0
KCO1 151146Z 07008KT 12/09 A30 RMK A01 T01190089  RH  082%=      5-min Rain = 0
KCO1 151147Z 07007KT 12/09 A30 RMK A01 T01190089  RH  082%=      5-min Rain = 0
KCO1 151148Z 07006KT 12/09 A30 RMK A01 T01190089  RH  082%=      5-min Rain = 0
KCO1 151149Z 06005KT 12/09 A2999 RMK A01 T01180088  RH  082%=      5-min Rain = 0
KCO1 151150Z 06006KT 12/09 A2999 RMK A01 T01180088  RH  082%=      5-min Rain = 0
KCO1 151151Z 07006KT 12/09 A2999 RMK A01 T01190089  RH  082%=      5-min Rain = 0
KCO1 151152Z 06006KT 12/09 A2999 RMK A01 T01190089  RH  082%=      5-min Rain = 0
KCO1 151153Z 06007KT 12/09 A2999 RMK A01 T01190089  RH  082%=      5-min Rain = 0
KCO1 151154Z 06008KT 12/09 A2999 RMK A01 T01190089  RH  082%=      5-min Rain = 0
KCO1 151155Z 06008KT 12/09 A2999 RMK A01 T01190089  RH  082%=      5-min Rain = 0
KCO1 151156Z 07009KT 12/09 A30 RMK A01 T01180089  RH  082%=      5-min Rain = 0
KCO1 151157Z 07009KT 12/09 A30 RMK A01 T01180089  RH  082%=      5-min Rain = 0
KCO1 151158Z 07006KT 12/09 A30 RMK A01 T01180089  RH  083%=      5-min Rain = 0
KCO1 151159Z 07009KT 12/09 A30 RMK A01 T01170089  RH  083%=      5-min Rain = 0
KCO1 151200Z 06006KT 12/09 A30 RMK A01 T01170089  RH  083%=      5-min Rain = 0
KCO1 151201Z 06007KT 12/09 A30 RMK A01 T01170089  RH  083%=      5-min Rain = 0
KCO1 151202Z 06007KT 12/09 A3001 RMK A01 T01170089  RH  083%=      5-min Rain = 0
KCO1 151203Z 07007KT 12/09 A3001 RMK A01 T01170089  RH  083%=      5-min Rain = 0
KCO1 151204Z 06006KT 12/09 A3001 RMK A01 T01170089  RH  083%=      5-min Rain = 0
KCO1 151205Z 06007KT 12/09 A3001 RMK A01 T01170089  RH  083%=      5-min Rain = 0
KCO1 151206Z 06005KT 12/09 A3001 RMK A01 T01170089  RH  083%=      5-min Rain = 0
KCO1 151207Z 06005KT 12/09 A3001 RMK A01 T01170089  RH  083%=      5-min Rain = 0
KCO1 151208Z 06006KT 12/09 A3001 RMK A01 T01170090  RH  083%=      5-min Rain = 0
KCO1 151209Z 06006KT 12/09 A3001 RMK A01 T01170089  RH  083%=      5-min Rain = 0
KCO1 151210Z 05005KT 12/09 A3001 RMK A01 T01170090  RH  083%=      5-min Rain = 0
KCO1 151211Z 06006KT 12/09 A3001 RMK A01 T01170090  RH  083%=      5-min Rain = 0
KCO1 151212Z 05005KT 12/09 A3001 RMK A01 T01170090  RH  083%=      5-min Rain = 0
KCO1 151213Z 05005KT 12/09 A3001 RMK A01 T01170090  RH  083%=      5-min Rain = 0
KCO1 151214Z 05005KT 12/09 A3001 RMK A01 T01170090  RH  083%=      5-min Rain = 0
KCO1 151215Z 05005KT 12/09 A3002 RMK A01 T01170090  RH  083%=      5-min Rain = 0
KCO1 151216Z 05006KT 12/09 A3002 RMK A01 T01170090  RH  083%=      5-min Rain = 0
KCO1 151217Z 05006KT 12/09 A3002 RMK A01 T01170090  RH  083%=      5-min Rain = 0
KCO1 151218Z 05006KT 12/09 A3002 RMK A01 T01170090  RH  084%=      5-min Rain = 0
KCO1 151219Z 05005KT 12/09 A3002 RMK A01 T01170090  RH  084%=      5-min Rain = 0
KCO1 151220Z 04004KT 12/09 A3002 RMK A01 T01170090  RH  084%=      5-min Rain = 0
KCO1 151221Z 04005KT 12/09 A3002 RMK A01 T01170090  RH  084%=      5-min Rain = 0
KCO1 151222Z 04004KT 12/09 A3002 RMK A01 T01170090  RH  084%=      5-min Rain = 0
KCO1 151223Z 04004KT 12/09 A3002 RMK A01 T01170091  RH  084%=      5-min Rain = 0
KCO1 151224Z 04003KT 12/09 A3002 RMK A01 T01170091  RH  084%=      5-min Rain = 0
KCO1 151225Z 04004KT 12/09 A3002 RMK A01 T01160090  RH  084%=      5-min Rain = 0
KCO1 151226Z 03005KT 12/09 A3002 RMK A01 T01160091  RH  084%=      5-min Rain = 0
KCO1 151227Z 04005KT 12/09 A3002 RMK A01 T01160090  RH  084%=      5-min Rain = 0
KCO1 151228Z 04005KT 12/09 A3002 RMK A01 T01160091  RH  084%=      5-min Rain = 0
KCO1 151229Z 04005KT 12/09 A3002 RMK A01 T01160090  RH  084%=      5-min Rain = 0
KCO1 151230Z 04005KT 12/09 A3002 RMK A01 T01160090  RH  084%=      5-min Rain = 0
KCO1 151231Z 05005KT 12/09 A3002 RMK A01 T01160091  RH  084%=      5-min Rain = 0
KCO1 151232Z 06005KT 12/09 A3002 RMK A01 T01160091  RH  084%=      5-min Rain = 0
KCO1 151233Z 06005KT 12/09 A3002 RMK A01 T01160091  RH  085%=      5-min Rain = 0
KCO1 151234Z 05004KT 12/09 A3002 RMK A01 T01160091  RH  085%=      5-min Rain = 0
KCO1 151235Z 05004KT 12/09 A3002 RMK A01 T01160091  RH  085%=      5-min Rain = 0
KCO1 151236Z 06005KT 12/09 A3002 RMK A01 T01170092  RH  085%=      5-min Rain = 0
KCO1 151237Z 06005KT 12/09 A3002 RMK A01 T01160091  RH  085%=      5-min Rain = 0
KCO1 151238Z 06005KT 12/09 A3002 RMK A01 T01160091  RH  085%=      5-min Rain = 0
KCO1 151239Z 05006KT 12/09 A3002 RMK A01 T01160091  RH  085%=      5-min Rain = 0
KCO1 151240Z 06006KT 12/09 A3002 RMK A01 T01160091  RH  085%=      5-min Rain = 0
KCO1 151241Z 06006KT 12/09 A3002 RMK A01 T01160092  RH  085%=      5-min Rain = 0
KCO1 151242Z 06006KT 12/09 A3002 RMK A01 T01160092  RH  085%=      5-min Rain = 0
KCO1 151243Z 06005KT 12/09 A3002 RMK A01 T01160092  RH  085%=      5-min Rain = 0
KCO1 151244Z 06005KT 12/09 A3002 RMK A01 T01160092  RH  085%=      5-min Rain = 0
KCO1 151245Z 06004KT 12/09 A3002 RMK A01 T01160092  RH  085%=      5-min Rain = 0
KCO1 151246Z 07005KT 12/09 A3002 RMK A01 T01160092  RH  085%=      5-min Rain = 0
KCO1 151247Z 07006KT 12/09 A3002 RMK A01 T01160092  RH  085%=      5-min Rain = 0
KCO1 151248Z 06007KT 12/09 A3002 RMK A01 T01160092  RH  085%=      5-min Rain = 0
KCO1 151249Z 06007KT 12/09 A3002 RMK A01 T01160092  RH  086%=      5-min Rain = 0
KCO1 151250Z 06006KT 12/09 A3002 RMK A01 T01160093  RH  086%=      5-min Rain = 0
KCO1 151251Z 07005KT 12/09 A3002 RMK A01 T01150093  RH  086%=      5-min Rain = 0
KCO1 151252Z 07006KT 12/09 A3002 RMK A01 T01150093  RH  086%=      5-min Rain = 0
KCO1 151253Z 07007KT 12/09 A3002 RMK A01 T01150093  RH  086%=      5-min Rain = 0
KCO1 151254Z 07005KT 12/09 A3002 RMK A01 T01150094  RH  087%=      5-min Rain = 0
KCO1 151255Z 06007KT 12/09 A3002 RMK A01 T01150094  RH  087%=      5-min Rain = 0
KCO1 151256Z 06008KT 12/10 A3002 RMK A01 T01150096  RH  088%=      5-min Rain = 0
KCO1 151257Z 06007KT 11/10 A3002 RMK A01 T01140096  RH  089%=      5-min Rain = 0
KCO1 151258Z 06006KT 11/10 A3002 RMK A01 T01140097  RH  089%=      5-min Rain = 0
KCO1 151259Z 06006KT 11/10 A3002 RMK A01 T01140098  RH  090%=      5-min Rain = 0
KCO1 151300Z 07006KT 11/10 A3002 RMK A01 T01130098  RH  090%=      5-min Rain = 0
KCO1 151301Z 07006KT 11/10 A3002 RMK A01 T01130098  RH  091%=      5-min Rain = 0
KCO1 151302Z 08005KT 11/10 A3002 RMK A01 T01130099  RH  091%=      5-min Rain = 0
KCO1 151303Z 07006KT 11/10 A3002 RMK A01 T01130100  RH  091%=      5-min Rain = 0
KCO1 151304Z 07006KT 11/10 A3002 RMK A01 T01130100  RH  092%=      5-min Rain = 0
KCO1 151305Z 07005KT 11/10 A3002 RMK A01 T01130100  RH  092%=      5-min Rain = 0
KCO1 151306Z 07006KT 11/10 A3002 RMK A01 T01130101  RH  092%=      5-min Rain = 0
KCO1 151307Z 06006KT 11/10 A3001 RMK A01 T01120101  RH  092%=      5-min Rain = 0
KCO1 151308Z 07006KT 11/10 A3001 RMK A01 T01120101  RH  093%=      5-min Rain = 0
KCO1 151309Z 07006KT 11/10 A3001 RMK A01 T01120101  RH  093%=      5-min Rain = 0
KCO1 151310Z 06006KT 11/10 A3002 RMK A01 T01120101  RH  093%=      5-min Rain = 0
KCO1 151311Z 07007KT 11/10 A3002 RMK A01 T01120101  RH  093%=      5-min Rain = 0
KCO1 151312Z 07006KT 11/10 A3002 RMK A01 T01110101  RH  094%=      5-min Rain = 0
KCO1 151313Z 07006KT 11/10 A3002 RMK A01 T01110101  RH  094%=      5-min Rain = 0
KCO1 151314Z 07006KT 11/10 A3002 RMK A01 T01110102  RH  094%=      5-min Rain = 0
KCO1 151315Z 08006KT 11/10 A3002 RMK A01 T01110102  RH  094%=      5-min Rain = 0
KCO1 151316Z 08006KT 11/10 A3002 RMK A01 T01110103  RH  095%=      5-min Rain = 0
KCO1 151317Z 08006KT 11/10 A3002 RMK A01 T01110103  RH  095%=      5-min Rain = 0
KCO1 151318Z 08006KT 11/10 A3002 RMK A01 T01110103  RH  095%=      5-min Rain = 0
KCO1 151319Z 08004KT 11/10 A3002 RMK A01 T01110103  RH  095%=      5-min Rain = 0
KCO1 151320Z 07004KT 11/10 A3002 RMK A01 T01110104  RH  095%=      5-min Rain = 0
KCO1 151321Z 07004KT 11/10 A3002 RMK A01 T01110104  RH  096%=      5-min Rain = 0
KCO1 151322Z 07004KT 11/11 A3002 RMK A01 T01110105  RH  096%=      5-min Rain = 0
KCO1 151323Z 06006KT 11/11 A3002 RMK A01 T01120105  RH  096%=      5-min Rain = 0
KCO1 151324Z 07005KT 11/11 A3002 RMK A01 T01120105  RH  096%=      5-min Rain = 0
KCO1 151325Z 07004KT 11/10 A3002 RMK A01 T01110104  RH  096%=      5-min Rain = 0
KCO1 151326Z 08004KT 11/10 A3002 RMK A01 T01110104  RH  096%=      5-min Rain = 0
KCO1 151327Z 07003KT 11/10 A3002 RMK A01 T01110104  RH  096%=      5-min Rain = 0
KCO1 151328Z 08004KT 11/11 A3002 RMK A01 T01110105  RH  096%=      5-min Rain = 0
KCO1 151329Z 07004KT 11/11 A3002 RMK A01 T01110105  RH  096%=      5-min Rain = 0
KCO1 151330Z 07004KT 11/10 A3002 RMK A01 T01110104  RH  096%=      5-min Rain = 0
KCO1 151331Z 07004KT 11/11 A3002 RMK A01 T01110105  RH  096%=      5-min Rain = 0
KCO1 151332Z 06005KT 11/11 A3002 RMK A01 T01110105  RH  096%=      5-min Rain = 0
KCO1 151333Z 07005KT 11/11 A3002 RMK A01 T01110105  RH  096%=      5-min Rain = 0
KCO1 151334Z 06006KT 11/11 A3002 RMK A01 T01110105  RH  096%=      5-min Rain = 0
KCO1 151335Z 07005KT 11/10 A3002 RMK A01 T01100104  RH  096%=      5-min Rain = 0
KCO1 151336Z 07006KT 11/11 A3002 RMK A01 T01100105  RH  096%=      5-min Rain = 0
KCO1 151337Z 06006KT 11/10 A3002 RMK A01 T01100104  RH  096%=      5-min Rain = 0
KCO1 151338Z 06006KT 11/10 A3002 RMK A01 T01100104  RH  096%=      5-min Rain = 0
KCO1 151339Z 06006KT 11/10 A3002 RMK A01 T01100104  RH  096%=      5-min Rain = 0
KCO1 151340Z 07005KT 11/10 A3002 RMK A01 T01110104  RH  096%=      5-min Rain = 0
KCO1 151341Z 07005KT 11/10 A3002 RMK A01 T01100104  RH  096%=      5-min Rain = 0
KCO1 151342Z 07005KT 11/10 A3002 RMK A01 T01100104  RH  096%=      5-min Rain = 0
KCO1 151343Z 06006KT 11/10 A3002 RMK A01 T01100104  RH  096%=      5-min Rain = 0
KCO1 151344Z 07005KT 11/10 A3002 RMK A01 T01110104  RH  096%=      5-min Rain = 0
KCO1 151345Z 06006KT 11/10 A3002 RMK A01 T01100103  RH  096%=      5-min Rain = 0
KCO1 151346Z 07006KT 11/10 A3002 RMK A01 T01100103  RH  095%=      5-min Rain = 0
KCO1 151347Z 07006KT 11/10 A3002 RMK A01 T01100103  RH  095%=      5-min Rain = 0
KCO1 151348Z 07007KT 11/10 A3002 RMK A01 T01100103  RH  095%=      5-min Rain = 0
KCO1 151349Z 07005KT 11/10 A3002 RMK A01 T01100103  RH  095%=      5-min Rain = 0
KCO1 151350Z 07006KT 11/10 A3002 RMK A01 T01100103  RH  095%=      5-min Rain = 0
KCO1 151351Z 06006KT 11/10 A3002 RMK A01 T01110103  RH  095%=      5-min Rain = 0
KCO1 151352Z 07005KT 11/10 A3002 RMK A01 T01110103  RH  095%=      5-min Rain = 0
KCO1 151353Z 07006KT 11/10 A3002 RMK A01 T01110102  RH  094%=      5-min Rain = 0
KCO1 151354Z 07004KT 11/10 A3003 RMK A01 T01110102  RH  094%=      5-min Rain = 0
KCO1 151355Z 08005KT 11/10 A3003 RMK A01 T01110102  RH  094%=      5-min Rain = 0
KCO1 151356Z 07005KT 11/10 A3003 RMK A01 T01110102  RH  094%=      5-min Rain = 0
KCO1 151357Z 08006KT 11/10 A3003 RMK A01 T01110102  RH  094%=      5-min Rain = 0
KCO1 151358Z 08006KT 11/10 A3003 RMK A01 T01110101  RH  093%=      5-min Rain = 0
KCO1 151359Z 07006KT 11/10 A3003 RMK A01 T01110101  RH  093%=      5-min Rain = 0
KCO1 151400Z 07006KT 11/10 A3003 RMK A01 T01110101  RH  093%=      5-min Rain = 0
KCO1 151401Z 07005KT 11/10 A3003 RMK A01 T01110101  RH  093%=      5-min Rain = 0
KCO1 151402Z 07005KT 11/10 A3002 RMK A01 T01110101  RH  093%=      5-min Rain = 0
KCO1 151403Z 07004KT 11/10 A3002 RMK A01 T01110101  RH  093%=      5-min Rain = 0
KCO1 151404Z 07006KT 11/10 A3002 RMK A01 T01110101  RH  093%=      5-min Rain = 0
KCO1 151405Z 08005KT 11/10 A3002 RMK A01 T01120101  RH  093%=      5-min Rain = 0
KCO1 151406Z 07005KT 11/10 A3002 RMK A01 T01120102  RH  093%=      5-min Rain = 0
KCO1 151407Z 07006KT 11/10 A3002 RMK A01 T01120101  RH  093%=      5-min Rain = 0
KCO1 151408Z 07006KT 11/10 A3002 RMK A01 T01130101  RH  092%=      5-min Rain = 0
KCO1 151409Z 07006KT 11/10 A3002 RMK A01 T01130100  RH  092%=      5-min Rain = 0
KCO1 151410Z 07006KT 11/10 A3002 RMK A01 T01130100  RH  092%=      5-min Rain = 0
KCO1 151411Z 07006KT 11/10 A3002 RMK A01 T01130100  RH  092%=      5-min Rain = 0
KCO1 151412Z 07005KT 11/10 A3002 RMK A01 T01130099  RH  091%=      5-min Rain = 0
KCO1 151413Z 07005KT 11/10 A3002 RMK A01 T01130099  RH  091%=      5-min Rain = 0
KCO1 151414Z 06006KT 11/10 A3002 RMK A01 T01130099  RH  091%=      5-min Rain = 0
KCO1 151415Z 06005KT 11/10 A3002 RMK A01 T01130099  RH  091%=      5-min Rain = 0
KCO1 151416Z 06005KT 11/10 A3003 RMK A01 T01130099  RH  091%=      5-min Rain = 0
KCO1 151417Z 06005KT 11/10 A3003 RMK A01 T01130099  RH  091%=      5-min Rain = 0
KCO1 151418Z 08005KT 11/10 A3003 RMK A01 T01130099  RH  091%=      5-min Rain = 0
KCO1 151419Z 07004KT 11/10 A3003 RMK A01 T01130099  RH  091%=      5-min Rain = 0
KCO1 151420Z 08005KT 11/10 A3003 RMK A01 T01130100  RH  091%=      5-min Rain = 0
KCO1 151421Z 08006KT 11/10 A3002 RMK A01 T01130099  RH  091%=      5-min Rain = 0
KCO1 151422Z 07006KT 11/10 A3002 RMK A01 T01130099  RH  091%=      5-min Rain = 0
KCO1 151423Z 07006KT 11/10 A3002 RMK A01 T01140099  RH  091%=      5-min Rain = 0
KCO1 151424Z 07006KT 11/10 A3002 RMK A01 T01140099  RH  091%=      5-min Rain = 0
KCO1 151425Z 08006KT 11/10 A3002 RMK A01 T01140099  RH  091%=      5-min Rain = 0
KCO1 151426Z 07005KT 11/10 A3002 RMK A01 T01140099  RH  091%=      5-min Rain = 0
KCO1 151427Z 07005KT 11/10 A3002 RMK A01 T01140099  RH  090%=      5-min Rain = 0
KCO1 151428Z 07006KT 11/10 A3002 RMK A01 T01140099  RH  090%=      5-min Rain = 0
KCO1 151429Z 07006KT 11/10 A3002 RMK A01 T01140099  RH  090%=      5-min Rain = 0
KCO1 151430Z 07005KT 11/10 A3002 RMK A01 T01140099  RH  090%=      5-min Rain = 0
KCO1 151431Z 07004KT 11/10 A3002 RMK A01 T01140100  RH  091%=      5-min Rain = 0
KCO1 151432Z 07005KT 11/10 A3002 RMK A01 T01140100  RH  091%=      5-min Rain = 0
KCO1 151433Z 07006KT 11/10 A3002 RMK A01 T01140100  RH  091%=      5-min Rain = 0
KCO1 151434Z 07004KT 11/10 A3002 RMK A01 T01140099  RH  090%=      5-min Rain = 0
KCO1 151435Z 07004KT 12/10 A3002 RMK A01 T01150100  RH  091%=      5-min Rain = 0
KCO1 151436Z 07005KT 12/10 A3002 RMK A01 T01150100  RH  091%=      5-min Rain = 0
KCO1 151437Z 07007KT 12/10 A3002 RMK A01 T01150100  RH  091%=      5-min Rain = 0
KCO1 151438Z 08006KT 12/10 A3002 RMK A01 T01150100  RH  090%=      5-min Rain = 0
KCO1 151439Z 08006KT 12/10 A3001 RMK A01 T01150100  RH  090%=      5-min Rain = 0
KCO1 151440Z 09005KT 12/10 A3001 RMK A01 T01150100  RH  090%=      5-min Rain = 0
KCO1 151441Z 09007KT 12/10 A3001 RMK A01 T01160100  RH  090%=      5-min Rain = 0
KCO1 151442Z 07006KT 12/10 A3001 RMK A01 T01160100  RH  089%=      5-min Rain = 0
KCO1 151443Z 07007KT 12/10 A3001 RMK A01 T01160099  RH  089%=      5-min Rain = 0
KCO1 151444Z 08005KT 12/10 A3001 RMK A01 T01160099  RH  089%=      5-min Rain = 0
KCO1 151445Z 08005KT 12/10 A3001 RMK A01 T01170100  RH  089%=      5-min Rain = 0
KCO1 151446Z 09007KT 12/10 A3001 RMK A01 T01170100  RH  089%=      5-min Rain = 0
KCO1 151447Z 08007KT 12/10 A3001 RMK A01 T01180100  RH  089%=      5-min Rain = 0
KCO1 151448Z 08006KT 12/10 A3001 RMK A01 T01180099  RH  088%=      5-min Rain = 0
KCO1 151449Z 08006KT 12/10 A3001 RMK A01 T01180099  RH  088%=      5-min Rain = 0
KCO1 151450Z 08006KT 12/10 A3001 RMK A01 T01180099  RH  088%=      5-min Rain = 0
KCO1 151451Z 08005KT 12/10 A3001 RMK A01 T01180099  RH  089%=      5-min Rain = 0
KCO1 151452Z 09005KT 12/10 A3002 RMK A01 T01180100  RH  089%=      5-min Rain = 0
KCO1 151453Z 08005KT 12/10 A3002 RMK A01 T01180099  RH  089%=      5-min Rain = 0
KCO1 151454Z 08005KT 12/10 A3002 RMK A01 T01170099  RH  089%=      5-min Rain = 0
KCO1 151455Z 08004KT 12/10 A3002 RMK A01 T01170099  RH  089%=      5-min Rain = 0
KCO1 151456Z 06004KT 12/10 A3002 RMK A01 T01170100  RH  090%=      5-min Rain = 0
KCO1 151457Z 06004KT 12/10 A3002 RMK A01 T01170100  RH  090%=      5-min Rain = 0
KCO1 151458Z 07004KT 12/10 A3002 RMK A01 T01170100  RH  089%=      5-min Rain = 0
KCO1 151459Z 07005KT 12/10 A3002 RMK A01 T01170100  RH  089%=      5-min Rain = 0
KCO1 151500Z 07004KT 12/10 A3002 RMK A01 T01170099  RH  089%=      5-min Rain = 0
KCO1 151501Z 05003KT 12/10 A3002 RMK A01 T01170099  RH  089%=      5-min Rain = 0
KCO1 151502Z 05004KT 12/10 A3002 RMK A01 T01170099  RH  089%=      5-min Rain = 0
KCO1 151503Z 05004KT 12/10 A3002 RMK A01 T01170099  RH  089%=      5-min Rain = 0
KCO1 151504Z 06004KT 12/10 A3002 RMK A01 T01170099  RH  089%=      5-min Rain = 0
KCO1 151505Z 06003KT 12/10 A3002 RMK A01 T01160099  RH  089%=      5-min Rain = 0
KCO1 151506Z 06004KT 12/10 A3002 RMK A01 T01170100  RH  089%=      5-min Rain = 0
KCO1 151507Z 05005KT 12/10 A3002 RMK A01 T01170100  RH  089%=      5-min Rain = 0
KCO1 151508Z 05005KT 12/10 A3002 RMK A01 T01180099  RH  089%=      5-min Rain = 0
KCO1 151509Z 06006KT 12/10 A3002 RMK A01 T01180099  RH  088%=      5-min Rain = 0
KCO1 151510Z 06005KT 12/10 A3002 RMK A01 T01170099  RH  088%=      5-min Rain = 0
KCO1 151511Z 06006KT 12/10 A3001 RMK A01 T01170099  RH  089%=      5-min Rain = 0
KCO1 151512Z 06006KT 12/10 A3001 RMK A01 T01170099  RH  089%=      5-min Rain = 0
KCO1 151513Z 06005KT 12/10 A3001 RMK A01 T01160099  RH  089%=      5-min Rain = 0
KCO1 151514Z 06004KT 12/10 A3001 RMK A01 T01160100  RH  090%=      5-min Rain = 0
KCO1 151515Z 06004KT 12/10 A3001 RMK A01 T01160100  RH  090%=      5-min Rain = 0
KCO1 151516Z 06005KT 12/10 A3001 RMK A01 T01170100  RH  090%=      5-min Rain = 0
KCO1 151517Z 06004KT 12/10 A3001 RMK A01 T01170100  RH  089%=      5-min Rain = 0
KCO1 151518Z 06003KT 12/10 A3001 RMK A01 T01170099  RH  089%=      5-min Rain = 0
KCO1 151519Z 06003KT 12/10 A3001 RMK A01 T01170100  RH  089%=      5-min Rain = 0
KCO1 151520Z 07005KT 12/10 A3001 RMK A01 T01180100  RH  089%=      5-min Rain = 0
KCO1 151521Z 07004KT 12/10 A3001 RMK A01 T01180099  RH  088%=      5-min Rain = 0
KCO1 151522Z 07005KT 12/10 A3001 RMK A01 T01180099  RH  088%=      5-min Rain = 0
KCO1 151523Z 08004KT 12/10 A3001 RMK A01 T01180099  RH  088%=      5-min Rain = 0
KCO1 151524Z 08004KT 12/10 A3001 RMK A01 T01180099  RH  088%=      5-min Rain = 0
KCO1 151525Z 07006KT 12/10 A3001 RMK A01 T01180099  RH  088%=      5-min Rain = 0
KCO1 151526Z 07005KT 12/10 A3001 RMK A01 T01190099  RH  088%=      5-min Rain = 0
KCO1 151527Z 07005KT 12/10 A3001 RMK A01 T01190099  RH  088%=      5-min Rain = 0
KCO1 151528Z 07005KT 12/10 A3001 RMK A01 T01190099  RH  088%=      5-min Rain = 0
KCO1 151529Z 07005KT 12/10 A3001 RMK A01 T01180099  RH  088%=      5-min Rain = 0
KCO1 151530Z 07005KT 12/10 A3001 RMK A01 T01190099  RH  088%=      5-min Rain = 0
KCO1 151531Z 06005KT 12/10 A3001 RMK A01 T01190099  RH  087%=      5-min Rain = 0
KCO1 151532Z 07005KT 12/10 A3001 RMK A01 T01190099  RH  087%=      5-min Rain = 0
KCO1 151533Z 07005KT 12/10 A3001 RMK A01 T01190099  RH  087%=      5-min Rain = 0
KCO1 151534Z 07005KT 12/10 A3001 RMK A01 T01190099  RH  087%=      5-min Rain = 0
KCO1 151535Z 07006KT 12/10 A3001 RMK A01 T01200099  RH  087%=      5-min Rain = 0
KCO1 151536Z 07006KT 12/10 A3001 RMK A01 T01190098  RH  087%=      5-min Rain = 0
KCO1 151537Z 06006KT 12/10 A3001 RMK A01 T01200099  RH  087%=      5-min Rain = 0
KCO1 151538Z 06005KT 12/10 A3001 RMK A01 T01200098  RH  087%=      5-min Rain = 0
KCO1 151539Z 07005KT 12/10 A3001 RMK A01 T01200099  RH  087%=      5-min Rain = 0
KCO1 151540Z 07007KT 12/10 A30 RMK A01 T01200099  RH  087%=      5-min Rain = 0
KCO1 151541Z 07006KT 12/10 A30 RMK A01 T01200098  RH  086%=      5-min Rain = 0
KCO1 151542Z 07005KT 12/10 A30 RMK A01 T01200099  RH  087%=      5-min Rain = 0
KCO1 151543Z 06006KT 12/10 A30 RMK A01 T01200099  RH  087%=      5-min Rain = 0
KCO1 151544Z 06005KT 12/10 A30 RMK A01 T01210098  RH  086%=      5-min Rain = 0
KCO1 151545Z 05006KT 12/10 A30 RMK A01 T01210098  RH  086%=      5-min Rain = 0
KCO1 151546Z 07006KT 12/10 A30 RMK A01 T01210098  RH  086%=      5-min Rain = 0
KCO1 151547Z 07005KT 12/10 A30 RMK A01 T01210098  RH  086%=      5-min Rain = 0
KCO1 151548Z 06005KT 12/10 A30 RMK A01 T01220098  RH  086%=      5-min Rain = 0
KCO1 151549Z 06005KT 12/10 A30 RMK A01 T01210098  RH  086%=      5-min Rain = 0
KCO1 151550Z 07006KT 12/10 A30 RMK A01 T01210098  RH  086%=      5-min Rain = 0
KCO1 151551Z 05006KT 12/10 A30 RMK A01 T01210098  RH  086%=      5-min Rain = 0
KCO1 151552Z 06005KT 12/10 A30 RMK A01 T01210098  RH  086%=      5-min Rain = 0
KCO1 151553Z 06005KT 12/10 A30 RMK A01 T01220099  RH  086%=      5-min Rain = 0
KCO1 151554Z 06005KT 12/10 A30 RMK A01 T01230099  RH  085%=      5-min Rain = 0
KCO1 151555Z 07006KT 12/10 A30 RMK A01 T01230098  RH  085%=      5-min Rain = 0
KCO1 151556Z 08004KT 12/10 A30 RMK A01 T01220097  RH  085%=      5-min Rain = 0
KCO1 151557Z 08004KT 12/10 A30 RMK A01 T01220098  RH  085%=      5-min Rain = 0
KCO1 151558Z 08004KT 12/10 A30 RMK A01 T01230098  RH  085%=      5-min Rain = 0
KCO1 151559Z 09004KT 12/10 A3001 RMK A01 T01230098  RH  085%=      5-min Rain = 0
KCO1 151600Z 09005KT 12/10 A3001 RMK A01 T01230098  RH  085%=      5-min Rain = 0
KCO1 151601Z 09005KT 12/10 A3001 RMK A01 T01220098  RH  085%=      5-min Rain = 0
KCO1 151602Z 09004KT 12/10 A3001 RMK A01 T01220098  RH  085%=      5-min Rain = 0
KCO1 151603Z 10003KT 12/10 A30 RMK A01 T01220098  RH  085%=      5-min Rain = 0
KCO1 151604Z 08004KT 12/10 A30 RMK A01 T01220098  RH  086%=      5-min Rain = 0
KCO1 151605Z 07006KT 12/10 A30 RMK A01 T01220098  RH  086%=      5-min Rain = 0
KCO1 151606Z 08005KT 12/10 A30 RMK A01 T01230099  RH  085%=      5-min Rain = 0
KCO1 151607Z 08005KT 12/10 A30 RMK A01 T01240099  RH  085%=      5-min Rain = 0
KCO1 151608Z 08006KT 12/10 A30 RMK A01 T01240099  RH  085%=      5-min Rain = 0
KCO1 151609Z 09006KT 12/10 A30 RMK A01 T01240098  RH  084%=      5-min Rain = 0
KCO1 151610Z 08005KT 12/10 A30 RMK A01 T01240098  RH  084%=      5-min Rain = 0
KCO1 151611Z 09003KT 12/10 A30 RMK A01 T01240098  RH  084%=      5-min Rain = 0
KCO1 151612Z 09004KT 12/10 A30 RMK A01 T01240098  RH  084%=      5-min Rain = 0
KCO1 151613Z 08003KT 12/10 A30 RMK A01 T01240099  RH  084%=      5-min Rain = 0
KCO1 151614Z 07004KT 13/10 A30 RMK A01 T01250099  RH  084%=      5-min Rain = 0
KCO1 151615Z 06004KT 13/10 A30 RMK A01 T01250099  RH  084%=      5-min Rain = 0
KCO1 151616Z 05004KT 13/10 A30 RMK A01 T01260099  RH  084%=      5-min Rain = 0
KCO1 151617Z 06005KT 13/10 A3001 RMK A01 T01250098  RH  084%=      5-min Rain = 0
KCO1 151618Z 05005KT 13/10 A3001 RMK A01 T01250099  RH  084%=      5-min Rain = 0
KCO1 151619Z 05005KT 13/10 A3001 RMK A01 T01250098  RH  084%=      5-min Rain = 0
KCO1 151620Z 05006KT 13/10 A3001 RMK A01 T01250099  RH  084%=      5-min Rain = 0
KCO1 151621Z 06005KT 13/10 A3001 RMK A01 T01250099  RH  084%=      5-min Rain = 0
KCO1 151622Z 05004KT 13/10 A3001 RMK A01 T01250099  RH  084%=      5-min Rain = 0
KCO1 151623Z 05003KT 13/10 A3001 RMK A01 T01250098  RH  084%=      5-min Rain = 0
KCO1 151624Z 04002KT 13/10 A3001 RMK A01 T01250099  RH  084%=      5-min Rain = 0
KCO1 151625Z 03003KT 12/10 A3001 RMK A01 T01240099  RH  084%=      5-min Rain = 0
KCO1 151626Z 02004KT 13/10 A3001 RMK A01 T01250099  RH  084%=      5-min Rain = 0
KCO1 151627Z 04004KT 13/10 A3001 RMK A01 T01250099  RH  084%=      5-min Rain = 0
KCO1 151628Z 05003KT 12/10 A3001 RMK A01 T01240098  RH  084%=      5-min Rain = 0
KCO1 151629Z 07003KT 12/10 A3002 RMK A01 T01240099  RH  085%=      5-min Rain = 0
KCO1 151630Z 09002KT 12/10 A3001 RMK A01 T01240098  RH  084%=      5-min Rain = 0
KCO1 151631Z 07003KT 12/10 A3001 RMK A01 T01240098  RH  084%=      5-min Rain = 0
KCO1 151632Z 07003KT 12/10 A3001 RMK A01 T01230098  RH  085%=      5-min Rain = 0
KCO1 151633Z 07004KT 12/10 A3001 RMK A01 T01240099  RH  085%=      5-min Rain = 0
KCO1 151634Z 06004KT 13/10 A3001 RMK A01 T01250099  RH  084%=      5-min Rain = 0
KCO1 151635Z 05003KT 12/10 A3002 RMK A01 T01240099  RH  084%=      5-min Rain = 0
KCO1 151636Z 06003KT 12/10 A3002 RMK A01 T01240099  RH  084%=      5-min Rain = 0
KCO1 151637Z 05003KT 12/10 A3002 RMK A01 T01240098  RH  085%=      5-min Rain = 0
KCO1 151638Z 04004KT 12/10 A3002 RMK A01 T01240099  RH  085%=      5-min Rain = 0
KCO1 151639Z 04004KT 13/10 A3001 RMK A01 T01250099  RH  084%=      5-min Rain = 0
KCO1 151640Z 04003KT 13/10 A3001 RMK A01 T01250099  RH  084%=      5-min Rain = 0
KCO1 151641Z 06003KT 13/10 A3001 RMK A01 T01250098  RH  084%=      5-min Rain = 0
KCO1 151642Z 08003KT 13/10 A3001 RMK A01 T01250099  RH  084%=      5-min Rain = 0
KCO1 151643Z 09003KT 12/10 A3001 RMK A01 T01240099  RH  084%=      5-min Rain = 0
KCO1 151644Z 08004KT 12/10 A3001 RMK A01 T01240099  RH  084%=      5-min Rain = 0
KCO1 151645Z 09004KT 12/10 A3001 RMK A01 T01240099  RH  085%=      5-min Rain = 0
KCO1 151646Z 08003KT 13/10 A3001 RMK A01 T01250099  RH  085%=      5-min Rain = 0
KCO1 151647Z 05002KT 13/10 A3001 RMK A01 T01250099  RH  084%=      5-min Rain = 0
KCO1 151648Z 06002KT 13/10 A3001 RMK A01 T01260100  RH  084%=      5-min Rain = 0
KCO1 151649Z 06004KT 13/10 A3001 RMK A01 T01270100  RH  084%=      5-min Rain = 0
KCO1 151650Z 07004KT 13/10 A3001 RMK A01 T01270100  RH  083%=      5-min Rain = 0
KCO1 151651Z 06005KT 13/10 A3001 RMK A01 T01280099  RH  083%=      5-min Rain = 0
KCO1 151652Z 06005KT 13/10 A30 RMK A01 T01280100  RH  083%=      5-min Rain = 0
KCO1 151653Z 06005KT 13/10 A30 RMK A01 T01290100  RH  082%=      5-min Rain = 0
KCO1 151654Z 07005KT 13/10 A30 RMK A01 T01290099  RH  082%=      5-min Rain = 0
KCO1 151655Z 06006KT 13/10 A30 RMK A01 T01280099  RH  082%=      5-min Rain = 0
KCO1 151656Z 06004KT 13/10 A30 RMK A01 T01280099  RH  083%=      5-min Rain = 0
KCO1 151657Z 06003KT 13/10 A30 RMK A01 T01290100  RH  082%=      5-min Rain = 0
KCO1 151658Z 06004KT 13/10 A30 RMK A01 T01290099  RH  082%=      5-min Rain = 0
KCO1 151659Z 05005KT 13/10 A30 RMK A01 T01290099  RH  082%=      5-min Rain = 0
KCO1 151700Z 06005KT 13/10 A30 RMK A01 T01290099  RH  082%=      5-min Rain = 0
KCO1 151701Z 04004KT 13/10 A30 RMK A01 T01290099  RH  082%=      5-min Rain = 0
KCO1 151702Z 05005KT 13/10 A30 RMK A01 T01290099  RH  082%=      5-min Rain = 0
KCO1 151703Z 05005KT 13/10 A30 RMK A01 T01290100  RH  083%=      5-min Rain = 0
KCO1 151704Z 04004KT 13/10 A30 RMK A01 T01290100  RH  082%=      5-min Rain = 0
KCO1 151705Z 02005KT 13/10 A30 RMK A01 T01290100  RH  082%=      5-min Rain = 0
KCO1 151706Z 04006KT 13/10 A30 RMK A01 T01290100  RH  082%=      5-min Rain = 0
KCO1 151707Z 04006KT 13/10 A30 RMK A01 T01300100  RH  082%=      5-min Rain = 0
KCO1 151708Z 06004KT 13/10 A30 RMK A01 T01300100  RH  082%=      5-min Rain = 0
KCO1 151709Z 04004KT 13/10 A3001 RMK A01 T01300100  RH  082%=      5-min Rain = 0
KCO1 151710Z 03004KT 13/10 A3001 RMK A01 T01300099  RH  082%=      5-min Rain = 0
KCO1 151711Z 02003KT 13/10 A3001 RMK A01 T01290099  RH  082%=      5-min Rain = 0
KCO1 151712Z 03003KT 13/10 A3001 RMK A01 T01290100  RH  082%=      5-min Rain = 0
KCO1 151713Z 02003KT 13/10 A3001 RMK A01 T01290100  RH  082%=      5-min Rain = 0
KCO1 151714Z 03003KT 13/10 A3001 RMK A01 T01300100  RH  082%=      5-min Rain = 0
KCO1 151715Z 01003KT 13/10 A3001 RMK A01 T01300100  RH  082%=      5-min Rain = 0
KCO1 151716Z 01003KT 13/10 A30 RMK A01 T01300099  RH  082%=      5-min Rain = 0
KCO1 151717Z 03005KT 13/10 A30 RMK A01 T01300099  RH  082%=      5-min Rain = 0
KCO1 151718Z 02006KT 13/10 A30 RMK A01 T01300100  RH  082%=      5-min Rain = 0
KCO1 151719Z 01006KT 13/10 A30 RMK A01 T01310100  RH  081%=      5-min Rain = 0
KCO1 151720Z 03005KT 13/10 A30 RMK A01 T01300099  RH  081%=      5-min Rain = 0
KCO1 151721Z 03004KT 13/10 A30 RMK A01 T01300099  RH  082%=      5-min Rain = 0
KCO1 151722Z 03005KT 13/10 A30 RMK A01 T01300100  RH  082%=      5-min Rain = 0
KCO1 151723Z 02006KT 13/10 A30 RMK A01 T01300099  RH  081%=      5-min Rain = 0
KCO1 151724Z 03006KT 13/10 A30 RMK A01 T01310099  RH  081%=      5-min Rain = 0
KCO1 151725Z 02006KT 13/10 A30 RMK A01 T01310099  RH  081%=      5-min Rain = 0
KCO1 151726Z 03006KT 13/10 A30 RMK A01 T01310099  RH  081%=      5-min Rain = 0
KCO1 151727Z 03004KT 13/10 A30 RMK A01 T01310099  RH  081%=      5-min Rain = 0
KCO1 151728Z 02005KT 13/10 A2999 RMK A01 T01300099  RH  081%=      5-min Rain = 0
KCO1 151729Z 01005KT 13/10 A2999 RMK A01 T01310100  RH  082%=      5-min Rain = 0
KCO1 151730Z 01006KT 13/10 A30 RMK A01 T01320100  RH  081%=      5-min Rain = 0
KCO1 151731Z 03006KT 13/10 A30 RMK A01 T01320099  RH  081%=      5-min Rain = 0
KCO1 151732Z 04005KT 13/10 A30 RMK A01 T01320099  RH  081%=      5-min Rain = 0
KCO1 151733Z 05005KT 13/10 A30 RMK A01 T01320099  RH  081%=      5-min Rain = 0
KCO1 151734Z 07004KT 13/10 A30 RMK A01 T01330100  RH  081%=      5-min Rain = 0
KCO1 151735Z 06006KT 13/10 A30 RMK A01 T01340100  RH  080%=      5-min Rain = 0
KCO1 151736Z 04005KT 14/10 A30 RMK A01 T01350100  RH  080%=      5-min Rain = 0
KCO1 151737Z 04005KT 14/10 A30 RMK A01 T01350100  RH  079%=      5-min Rain = 0
KCO1 151738Z 04004KT 14/10 A30 RMK A01 T01360100  RH  079%=      5-min Rain = 0
KCO1 151739Z 06004KT 14/10 A30 RMK A01 T01360100  RH  079%=      5-min Rain = 0
KCO1 151740Z 05003KT 14/10 A30 RMK A01 T01380101  RH  078%=      5-min Rain = 0
KCO1 151741Z 03004KT 14/10 A2999 RMK A01 T01380100  RH  078%=      5-min Rain = 0
KCO1 151742Z 05004KT 14/10 A2999 RMK A01 T01380101  RH  078%=      5-min Rain = 0
KCO1 151743Z 05005KT 14/10 A2999 RMK A01 T01380100  RH  078%=      5-min Rain = 0
KCO1 151744Z 05005KT 14/10 A2999 RMK A01 T01380100  RH  078%=      5-min Rain = 0
KCO1 151745Z 08006KT 14/10 A2999 RMK A01 T01380100  RH  078%=      5-min Rain = 0
KCO1 151746Z 08005KT 14/10 A2999 RMK A01 T01390100  RH  077%=      5-min Rain = 0
KCO1 151747Z 06004KT 14/10 A2999 RMK A01 T01390100  RH  077%=      5-min Rain = 0
KCO1 151748Z 06004KT 14/10 A2999 RMK A01 T01390100  RH  077%=      5-min Rain = 0
KCO1 151749Z 03006KT 14/10 A2999 RMK A01 T01390101  RH  078%=      5-min Rain = 0
KCO1 151750Z 03006KT 14/10 A2998 RMK A01 T01400101  RH  077%=      5-min Rain = 0
KCO1 151751Z 03005KT 14/10 A2998 RMK A01 T01410101  RH  077%=      5-min Rain = 0
KCO1 151752Z 04005KT 14/10 A2998 RMK A01 T01400100  RH  077%=      5-min Rain = 0
KCO1 151753Z 02007KT 14/10 A2999 RMK A01 T01410101  RH  077%=      5-min Rain = 0
KCO1 151754Z 01006KT 14/10 A2999 RMK A01 T01410100  RH  076%=      5-min Rain = 0
KCO1 151755Z 01004KT 14/10 A2999 RMK A01 T01400100  RH  076%=      5-min Rain = 0
KCO1 151756Z 07003KT 14/10 A2999 RMK A01 T01400100  RH  077%=      5-min Rain = 0
KCO1 151757Z 05005KT 14/10 A2999 RMK A01 T01420102  RH  077%=      5-min Rain = 0
KCO1 151758Z 05006KT 14/10 A2999 RMK A01 T01430101  RH  076%=      5-min Rain = 0
KCO1 151759Z 06005KT 14/10 A2999 RMK A01 T01430100  RH  075%=      5-min Rain = 0
KCO1 151800Z 06005KT 14/10 A2999 RMK A01 T01440101  RH  075%=      5-min Rain = 0
KCO1 151801Z 06004KT 15/10 A2999 RMK A01 T01450101  RH  075%=      5-min Rain = 0
KCO1 151802Z 04005KT 15/10 A2999 RMK A01 T01450101  RH  075%=      5-min Rain = 0
KCO1 151803Z 04003KT 14/10 A2999 RMK A01 T01440100  RH  075%=      5-min Rain = 0
KCO1 151804Z 02006KT 14/10 A2999 RMK A01 T01440101  RH  075%=      5-min Rain = 0
KCO1 151805Z 05005KT 14/10 A2999 RMK A01 T01430100  RH  075%=      5-min Rain = 0
KCO1 151806Z 07005KT 14/10 A2999 RMK A01 T01440100  RH  075%=      5-min Rain = 0
KCO1 151807Z 07006KT 14/10 A2999 RMK A01 T01440100  RH  075%=      5-min Rain = 0
KCO1 151808Z 05004KT 14/10 A2999 RMK A01 T01440100  RH  075%=      5-min Rain = 0
KCO1 151809Z 03005KT 14/10 A2999 RMK A01 T01430100  RH  075%=      5-min Rain = 0
KCO1 151810Z 02004KT 14/10 A2999 RMK A01 T01420099  RH  075%=      5-min Rain = 0
KCO1 151811Z 02004KT 14/10 A2998 RMK A01 T01400099  RH  076%=      5-min Rain = 0
KCO1 151812Z 03006KT 14/10 A2998 RMK A01 T01410100  RH  076%=      5-min Rain = 0
KCO1 151813Z 05006KT 14/10 A2998 RMK A01 T01430100  RH  076%=      5-min Rain = 0
KCO1 151814Z 06005KT 14/10 A2998 RMK A01 T01430100  RH  075%=      5-min Rain = 0
KCO1 151815Z 07004KT 14/10 A2998 RMK A01 T01440101  RH  075%=      5-min Rain = 0
KCO1 151816Z 07006KT 15/10 A2997 RMK A01 T01460102  RH  075%=      5-min Rain = 0
KCO1 151817Z 07006KT 15/10 A2997 RMK A01 T01460101  RH  074%=      5-min Rain = 0
KCO1 151818Z 06006KT 15/10 A2997 RMK A01 T01460101  RH  074%=      5-min Rain = 0
KCO1 151819Z 07005KT 15/10 A2997 RMK A01 T01470101  RH  074%=      5-min Rain = 0
KCO1 151820Z 07005KT 15/10 A2997 RMK A01 T01470101  RH  074%=      5-min Rain = 0
KCO1 151821Z 06005KT 15/10 A2997 RMK A01 T01470101  RH  074%=      5-min Rain = 0
KCO1 151822Z 06005KT 15/10 A2997 RMK A01 T01460100  RH  074%=      5-min Rain = 0
KCO1 151823Z 05005KT 15/10 A2997 RMK A01 T01450100  RH  074%=      5-min Rain = 0
KCO1 151824Z 06006KT 15/10 A2997 RMK A01 T01450100  RH  074%=      5-min Rain = 0
KCO1 151825Z 08006KT 15/10 A2997 RMK A01 T01470101  RH  074%=      5-min Rain = 0
KCO1 151826Z 09005KT 15/10 A2997 RMK A01 T01490102  RH  073%=      5-min Rain = 0
KCO1 151827Z 09005KT 15/10 A2997 RMK A01 T01490101  RH  073%=      5-min Rain = 0
KCO1 151828Z 07004KT 15/10 A2997 RMK A01 T01490101  RH  073%=      5-min Rain = 0
KCO1 151829Z 04004KT 15/10 A2997 RMK A01 T01500102  RH  073%=      5-min Rain = 0
KCO1 151830Z 04006KT 15/10 A2997 RMK A01 T01500101  RH  073%=      5-min Rain = 0
KCO1 151831Z 04005KT 15/10 A2997 RMK A01 T01500100  RH  072%=      5-min Rain = 0
KCO1 151832Z 03004KT 15/10 A2997 RMK A01 T01470099  RH  073%=      5-min Rain = 0
KCO1 151833Z 05003KT 15/10 A2997 RMK A01 T01470100  RH  074%=      5-min Rain = 0
KCO1 151834Z 08004KT 15/10 A2997 RMK A01 T01460100  RH  074%=      5-min Rain = 0
KCO1 151835Z 09005KT 15/10 A2997 RMK A01 T01460100  RH  074%=      5-min Rain = 0
KCO1 151836Z 08005KT 15/10 A2997 RMK A01 T01460100  RH  074%=      5-min Rain = 0
KCO1 151837Z 07006KT 15/10 A2997 RMK A01 T01450100  RH  074%=      5-min Rain = 0
KCO1 151838Z 09004KT 15/10 A2997 RMK A01 T01450100  RH  074%=      5-min Rain = 0
KCO1 151839Z 09005KT 15/10 A2996 RMK A01 T01450101  RH  075%=      5-min Rain = 0
KCO1 151840Z 07004KT 15/10 A2996 RMK A01 T01460101  RH  074%=      5-min Rain = 0
KCO1 151841Z 06004KT 15/10 A2996 RMK A01 T01480102  RH  074%=      5-min Rain = 0
KCO1 151842Z 07007KT 15/10 A2996 RMK A01 T01500103  RH  073%=      5-min Rain = 0
KCO1 151843Z 07006KT 15/10 A2996 RMK A01 T01510102  RH  072%=      5-min Rain = 0
KCO1 151844Z 09007KT 15/10 A2996 RMK A01 T01520102  RH  072%=      5-min Rain = 0
KCO1 151845Z 09007KT 15/10 A2997 RMK A01 T01520101  RH  072%=      5-min Rain = 0
KCO1 151846Z 08005KT 15/10 A2997 RMK A01 T01510100  RH  072%=      5-min Rain = 0
KCO1 151847Z 09006KT 15/10 A2997 RMK A01 T01500100  RH  072%=      5-min Rain = 0
KCO1 151848Z 10005KT 15/10 A2997 RMK A01 T01490100  RH  073%=      5-min Rain = 0
KCO1 151849Z 11003KT 15/10 A2997 RMK A01 T01480100  RH  073%=      5-min Rain = 0
KCO1 151850Z 10005KT 15/10 A2997 RMK A01 T01470100  RH  073%=      5-min Rain = 0
KCO1 151851Z 05005KT 15/10 A2997 RMK A01 T01470101  RH  074%=      5-min Rain = 0
KCO1 151852Z 05004KT 15/10 A2997 RMK A01 T01480101  RH  073%=      5-min Rain = 0
KCO1 151853Z 08004KT 15/10 A2997 RMK A01 T01490101  RH  073%=      5-min Rain = 0
KCO1 151854Z 09002KT 15/10 A2997 RMK A01 T01500101  RH  073%=      5-min Rain = 0
KCO1 151855Z 05005KT 15/10 A2997 RMK A01 T01500101  RH  073%=      5-min Rain = 0
KCO1 151856Z 04004KT 15/10 A2997 RMK A01 T01500101  RH  072%=      5-min Rain = 0
KCO1 151857Z 05003KT 15/10 A2997 RMK A01 T01490100  RH  072%=      5-min Rain = 0
KCO1 151858Z 04003KT 15/10 A2997 RMK A01 T01490101  RH  073%=      5-min Rain = 0
KCO1 151859Z 04002KT 15/10 A2997 RMK A01 T01490101  RH  073%=      5-min Rain = 0
KCO1 151900Z 09002KT 15/10 A2997 RMK A01 T01510102  RH  073%=      5-min Rain = 0
KCO1 151901Z 05005KT 15/10 A2996 RMK A01 T01520102  RH  072%=      5-min Rain = 0
KCO1 151902Z 05005KT 15/10 A2996 RMK A01 T01520102  RH  072%=      5-min Rain = 0
KCO1 151903Z 06006KT 15/10 A2995 RMK A01 T01520101  RH  072%=      5-min Rain = 0
KCO1 151904Z 06005KT 15/10 A2995 RMK A01 T01510102  RH  072%=      5-min Rain = 0
KCO1 151905Z 05008KT 15/10 A2995 RMK A01 T01530102  RH  072%=      5-min Rain = 0
KCO1 151906Z 05009KT 15/10 A2995 RMK A01 T01530102  RH  072%=      5-min Rain = 0
KCO1 151907Z 06007KT 15/10 A2995 RMK A01 T01530102  RH  072%=      5-min Rain = 0
KCO1 151908Z 05005KT 15/10 A2995 RMK A01 T01540102  RH  071%=      5-min Rain = 0
KCO1 151909Z 06005KT 16/10 A2995 RMK A01 T01550103  RH  071%=      5-min Rain = 0
KCO1 151910Z 06007KT 16/10 A2995 RMK A01 T01550103  RH  071%=      5-min Rain = 0
KCO1 151911Z 06004KT 16/10 A2995 RMK A01 T01550102  RH  071%=      5-min Rain = 0
KCO1 151912Z 05006KT 16/10 A2995 RMK A01 T01550103  RH  071%=      5-min Rain = 0
KCO1 151913Z 05008KT 16/10 A2995 RMK A01 T01550103  RH  071%=      5-min Rain = 0
KCO1 151914Z 08007KT 16/10 A2995 RMK A01 T01550103  RH  071%=      5-min Rain = 0
KCO1 151915Z 08007KT 16/10 A2995 RMK A01 T01550102  RH  071%=      5-min Rain = 0
KCO1 151916Z 07006KT 15/10 A2995 RMK A01 T01540102  RH  071%=      5-min Rain = 0
KCO1 151917Z 05007KT 15/10 A2995 RMK A01 T01540103  RH  071%=      5-min Rain = 0
KCO1 151918Z 08006KT 16/10 A2995 RMK A01 T01550103  RH  071%=      5-min Rain = 0
KCO1 151919Z 07006KT 16/10 A2995 RMK A01 T01560104  RH  071%=      5-min Rain = 0
KCO1 151920Z 06007KT 16/10 A2995 RMK A01 T01570104  RH  071%=      5-min Rain = 0
KCO1 151921Z 06006KT 16/10 A2995 RMK A01 T01570104  RH  070%=      5-min Rain = 0
KCO1 151922Z 08007KT 16/10 A2994 RMK A01 T01560103  RH  071%=      5-min Rain = 0
KCO1 151923Z 08007KT 16/10 A2994 RMK A01 T01560103  RH  071%=      5-min Rain = 0
KCO1 151924Z 08007KT 16/10 A2994 RMK A01 T01560104  RH  071%=      5-min Rain = 0
KCO1 151925Z 07005KT 16/10 A2994 RMK A01 T01570104  RH  071%=      5-min Rain = 0
KCO1 151926Z 07006KT 16/10 A2995 RMK A01 T01570104  RH  071%=      5-min Rain = 0
KCO1 151927Z 06007KT 16/10 A2995 RMK A01 T01580104  RH  070%=      5-min Rain = 0
KCO1 151928Z 06005KT 16/10 A2995 RMK A01 T01560102  RH  070%=      5-min Rain = 0
KCO1 151929Z 06006KT 16/10 A2994 RMK A01 T01550103  RH  071%=      5-min Rain = 0
KCO1 151930Z 06007KT 16/10 A2994 RMK A01 T01550104  RH  071%=      5-min Rain = 0
KCO1 151931Z 07006KT 16/10 A2994 RMK A01 T01560104  RH  071%=      5-min Rain = 0
KCO1 151932Z 07008KT 16/10 A2994 RMK A01 T01570104  RH  071%=      5-min Rain = 0
KCO1 151933Z 07008KT 16/10 A2994 RMK A01 T01570104  RH  071%=      5-min Rain = 0
KCO1 151934Z 05007KT 16/10 A2993 RMK A01 T01580104  RH  070%=      5-min Rain = 0
KCO1 151935Z 05007KT 16/10 A2993 RMK A01 T01580104  RH  070%=      5-min Rain = 0
KCO1 151936Z 05008KT 16/10 A2993 RMK A01 T01580104  RH  070%=      5-min Rain = 0
KCO1 151937Z 05007KT 16/10 A2993 RMK A01 T01580104  RH  070%=      5-min Rain = 0
KCO1 151938Z 05006KT 16/11 A2994 RMK A01 T01560105  RH  071%=      5-min Rain = 0
KCO1 151939Z 06005KT 16/11 A2994 RMK A01 T01550105  RH  072%=      5-min Rain = 0
KCO1 151940Z 05005KT 16/11 A2994 RMK A01 T01550106  RH  072%=      5-min Rain = 0
KCO1 151941Z 08004KT 16/11 A2994 RMK A01 T01570106  RH  072%=      5-min Rain = 0
KCO1 151942Z 07005KT 16/11 A2994 RMK A01 T01570106  RH  071%=      5-min Rain = 0
KCO1 151943Z 07005KT 16/11 A2994 RMK A01 T01570106  RH  072%=      5-min Rain = 0
KCO1 151944Z 07004KT 16/11 A2993 RMK A01 T01570106  RH  072%=      5-min Rain = 0
KCO1 151945Z 06005KT 16/11 A2993 RMK A01 T01570106  RH  072%=      5-min Rain = 0
KCO1 151946Z 06005KT 16/11 A2993 RMK A01 T01580106  RH  072%=      5-min Rain = 0
KCO1 151947Z 08005KT 16/11 A2993 RMK A01 T01580106  RH  071%=      5-min Rain = 0
KCO1 151948Z 09005KT 16/11 A2993 RMK A01 T01580106  RH  071%=      5-min Rain = 0
KCO1 151949Z 10006KT 16/11 A2993 RMK A01 T01580106  RH  071%=      5-min Rain = 0
KCO1 151950Z 10005KT 16/11 A2993 RMK A01 T01580106  RH  071%=      5-min Rain = 0
KCO1 151951Z 10006KT 16/11 A2993 RMK A01 T01580106  RH  071%=      5-min Rain = 0
KCO1 151952Z 08007KT 16/11 A2993 RMK A01 T01580106  RH  071%=      5-min Rain = 0
KCO1 151953Z 08007KT 16/11 A2993 RMK A01 T01590107  RH  071%=      5-min Rain = 0
KCO1 151954Z 07006KT 16/11 A2993 RMK A01 T01570106  RH  071%=      5-min Rain = 0
KCO1 151955Z 06003KT 16/11 A2993 RMK A01 T01570106  RH  072%=      5-min Rain = 0
KCO1 151956Z 07004KT 16/11 A2993 RMK A01 T01560106  RH  072%=      5-min Rain = 0
KCO1 151957Z 07005KT 16/11 A2993 RMK A01 T01560106  RH  072%=      5-min Rain = 0
KCO1 151958Z 05004KT 16/11 A2993 RMK A01 T01560106  RH  072%=      5-min Rain = 0
KCO1 151959Z 04005KT 16/11 A2993 RMK A01 T01560106  RH  072%=      5-min Rain = 0
KCO1 152000Z 06005KT 16/11 A2993 RMK A01 T01560106  RH  072%=      5-min Rain = 0
KCO1 152001Z 08003KT 16/11 A2993 RMK A01 T01560107  RH  072%=      5-min Rain = 0
KCO1 152002Z 10004KT 16/11 A2993 RMK A01 T01560106  RH  072%=      5-min Rain = 0
KCO1 152003Z 10005KT 16/11 A2993 RMK A01 T01570107  RH  072%=      5-min Rain = 0
KCO1 152004Z 10005KT 16/11 A2993 RMK A01 T01580107  RH  072%=      5-min Rain = 0
KCO1 152005Z 10005KT 16/11 A2993 RMK A01 T01590107  RH  071%=      5-min Rain = 0
KCO1 152006Z 10005KT 16/11 A2993 RMK A01 T01590107  RH  071%=      5-min Rain = 0
KCO1 152007Z 12004KT 16/11 A2993 RMK A01 T01590107  RH  071%=      5-min Rain = 0
KCO1 152008Z 13003KT 16/11 A2993 RMK A01 T01570106  RH  071%=      5-min Rain = 0
KCO1 152009Z 13002KT 16/11 A2993 RMK A01 T01560106  RH  072%=      5-min Rain = 0
KCO1 152010Z 10003KT 16/11 A2993 RMK A01 T01560106  RH  072%=      5-min Rain = 0
KCO1 152011Z 10006KT 16/11 A2993 RMK A01 T01570107  RH  072%=      5-min Rain = 0
KCO1 152012Z 11005KT 16/11 A2993 RMK A01 T01590108  RH  072%=      5-min Rain = 0
KCO1 152013Z 11004KT 16/11 A2992 RMK A01 T01610108  RH  071%=      5-min Rain = 0
KCO1 152014Z 08004KT 16/11 A2992 RMK A01 T01620109  RH  071%=      5-min Rain = 0
KCO1 152015Z 07004KT 16/11 A2992 RMK A01 T01630108  RH  070%=      5-min Rain = 0
KCO1 152016Z 04005KT 16/11 A2992 RMK A01 T01630107  RH  070%=      5-min Rain = 0
KCO1 152017Z 03004KT 16/11 A2992 RMK A01 T01620107  RH  070%=      5-min Rain = 0
KCO1 152018Z 06005KT 16/11 A2992 RMK A01 T01600107  RH  071%=      5-min Rain = 0
KCO1 152019Z 05006KT 16/11 A2992 RMK A01 T01600107  RH  071%=      5-min Rain = 0
KCO1 152020Z 05005KT 16/11 A2992 RMK A01 T01610107  RH  071%=      5-min Rain = 0
KCO1 152021Z 05005KT 16/11 A2992 RMK A01 T01610108  RH  071%=      5-min Rain = 0
KCO1 152022Z 06005KT 16/11 A2992 RMK A01 T01610108  RH  070%=      5-min Rain = 0
KCO1 152023Z 08004KT 16/11 A2992 RMK A01 T01610107  RH  070%=      5-min Rain = 0
KCO1 152024Z 07003KT 16/11 A2992 RMK A01 T01610107  RH  070%=      5-min Rain = 0
KCO1 152025Z 06006KT 16/11 A2991 RMK A01 T01610107  RH  070%=      5-min Rain = 0
KCO1 152026Z 06007KT 16/11 A2991 RMK A01 T01610108  RH  070%=      5-min Rain = 0
KCO1 152027Z 07005KT 16/11 A2991 RMK A01 T01620108  RH  070%=      5-min Rain = 0
KCO1 152028Z 07006KT 16/11 A2991 RMK A01 T01640109  RH  070%=      5-min Rain = 0
KCO1 152029Z 07006KT 17/11 A2991 RMK A01 T01670110  RH  069%=      5-min Rain = 0
KCO1 152030Z 07006KT 17/11 A2991 RMK A01 T01660108  RH  069%=      5-min Rain = 0
KCO1 152031Z 07007KT 17/11 A2991 RMK A01 T01650108  RH  069%=      5-min Rain = 0
KCO1 152032Z 06006KT 17/11 A2991 RMK A01 T01650108  RH  069%=      5-min Rain = 0
KCO1 152033Z 06006KT 17/11 A299 RMK A01 T01650108  RH  069%=      5-min Rain = 0
KCO1 152034Z 07006KT 16/11 A299 RMK A01 T01640108  RH  069%=      5-min Rain = 0
KCO1 152035Z 10006KT 16/11 A299 RMK A01 T01640108  RH  069%=      5-min Rain = 0
KCO1 152036Z 10005KT 16/11 A299 RMK A01 T01640108  RH  070%=      5-min Rain = 0
KCO1 152037Z 10007G12KT 17/11 A2989 RMK A01 T01660110  RH  070%=      5-min Rain = 0
KCO1 152038Z 10009KT 17/11 A2989 RMK A01 T01690110  RH  068%=      5-min Rain = 0
KCO1 152039Z 11006KT 17/11 A2989 RMK A01 T01700109  RH  067%=      5-min Rain = 0
KCO1 152040Z 10006G11KT 17/11 A2989 RMK A01 T01700109  RH  067%=      5-min Rain = 0
KCO1 152041Z 08008KT 17/11 A2989 RMK A01 T01710110  RH  067%=      5-min Rain = 0
KCO1 152042Z 09007KT 17/11 A2989 RMK A01 T01730110  RH  067%=      5-min Rain = 0
KCO1 152043Z 10007KT 17/11 A2989 RMK A01 T01740110  RH  066%=      5-min Rain = 0
KCO1 152044Z 11006KT 18/11 A2989 RMK A01 T01750111  RH  066%=      5-min Rain = 0
KCO1 152045Z 10009KT 18/11 A2989 RMK A01 T01750110  RH  065%=      5-min Rain = 0
KCO1 152046Z 10008KT 18/11 A2989 RMK A01 T01750109  RH  065%=      5-min Rain = 0
KCO1 152047Z 09006KT 17/11 A2989 RMK A01 T01730108  RH  066%=      5-min Rain = 0
KCO1 152048Z 10005KT 17/11 A2989 RMK A01 T01720108  RH  066%=      5-min Rain = 0
KCO1 152049Z 07006KT 17/11 A2989 RMK A01 T01700109  RH  067%=      5-min Rain = 0
KCO1 152050Z 08006KT 17/11 A299 RMK A01 T01720110  RH  067%=      5-min Rain = 0
KCO1 152051Z 06006KT 17/11 A299 RMK A01 T01730110  RH  066%=      5-min Rain = 0
KCO1 152052Z 06006KT 17/11 A299 RMK A01 T01740110  RH  066%=      5-min Rain = 0
KCO1 152053Z 06004KT 17/11 A299 RMK A01 T01740110  RH  066%=      5-min Rain = 0
KCO1 152054Z 06006KT 17/11 A299 RMK A01 T01740109  RH  066%=      5-min Rain = 0
KCO1 152055Z 04006KT 17/11 A299 RMK A01 T01730109  RH  066%=      5-min Rain = 0
KCO1 152056Z 04006KT 17/11 A299 RMK A01 T01730110  RH  066%=      5-min Rain = 0
KCO1 152057Z 04007KT 17/11 A2989 RMK A01 T01740110  RH  066%=      5-min Rain = 0
KCO1 152058Z 05007KT 17/11 A2989 RMK A01 T01730109  RH  066%=      5-min Rain = 0
KCO1 152059Z 05005KT 17/11 A2989 RMK A01 T01710108  RH  067%=      5-min Rain = 0
KCO1 152100Z 05004KT 17/11 A2989 RMK A01 T01710110  RH  067%=      5-min Rain = 0
KCO1 152101Z 05003KT 17/11 A299 RMK A01 T01720110  RH  067%=      5-min Rain = 0
KCO1 152102Z 08003KT 17/11 A2989 RMK A01 T01730110  RH  066%=      5-min Rain = 0
KCO1 152103Z 11004KT 18/11 A2989 RMK A01 T01750110  RH  066%=      5-min Rain = 0
KCO1 152104Z 10005KT 18/11 A2989 RMK A01 T01760111  RH  065%=      5-min Rain = 0
KCO1 152105Z 07005KT 18/11 A2989 RMK A01 T01770112  RH  065%=      5-min Rain = 0
KCO1 152106Z 05005KT 18/11 A2988 RMK A01 T01810114  RH  065%=      5-min Rain = 0
KCO1 152107Z 06007KT 19/11 A2988 RMK A01 T01850114  RH  063%=      5-min Rain = 0
KCO1 152108Z 08007KT 19/11 A2988 RMK A01 T01850112  RH  062%=      5-min Rain = 0
KCO1 152109Z 06007KT 18/11 A2988 RMK A01 T01830111  RH  063%=      5-min Rain = 0
KCO1 152110Z 07007KT 18/11 A2988 RMK A01 T01820111  RH  063%=      5-min Rain = 0
KCO1 152111Z 06006KT 18/11 A2988 RMK A01 T01820110  RH  063%=      5-min Rain = 0
KCO1 152112Z 05006KT 18/11 A2988 RMK A01 T01800110  RH  063%=      5-min Rain = 0
KCO1 152113Z 05005KT 18/11 A2988 RMK A01 T01810111  RH  064%=      5-min Rain = 0
KCO1 152114Z 08004KT 18/11 A2988 RMK A01 T01820111  RH  063%=      5-min Rain = 0
KCO1 152115Z 07004KT 18/11 A2988 RMK A01 T01820111  RH  063%=      5-min Rain = 0
KCO1 152116Z 06005KT 18/11 A2988 RMK A01 T01830112  RH  063%=      5-min Rain = 0
KCO1 152117Z 05004KT 18/11 A2988 RMK A01 T01840112  RH  063%=      5-min Rain = 0
KCO1 152118Z 03007KT 18/11 A2987 RMK A01 T01840112  RH  063%=      5-min Rain = 0
KCO1 152119Z 04008KT 18/11 A2987 RMK A01 T01840112  RH  063%=      5-min Rain = 0
KCO1 152120Z 04008KT 18/11 A2987 RMK A01 T01840112  RH  063%=      5-min Rain = 0
KCO1 152121Z 04006KT 18/11 A2987 RMK A01 T01820111  RH  063%=      5-min Rain = 0
KCO1 152122Z 06005KT 18/11 A2987 RMK A01 T01800111  RH  064%=      5-min Rain = 0
KCO1 152123Z 07004KT 18/11 A2987 RMK A01 T01810112  RH  064%=      5-min Rain = 0
KCO1 152124Z 03007KT 18/11 A2987 RMK A01 T01840113  RH  063%=      5-min Rain = 0
KCO1 152125Z 04006KT 18/11 A2987 RMK A01 T01840111  RH  062%=      5-min Rain = 0
KCO1 152126Z 03006KT 18/11 A2988 RMK A01 T01820110  RH  063%=      5-min Rain = 0
KCO1 152127Z 04003KT 18/11 A2987 RMK A01 T01800110  RH  064%=      5-min Rain = 0
KCO1 152128Z 06003KT 18/11 A2987 RMK A01 T01790111  RH  064%=      5-min Rain = 0
KCO1 152129Z 05007KT 18/11 A2987 RMK A01 T01790111  RH  064%=      5-min Rain = 0
KCO1 152130Z 05006KT 18/11 A2987 RMK A01 T01800111  RH  064%=      5-min Rain = 0
KCO1 152131Z 06008KT 18/11 A2987 RMK A01 T01800111  RH  064%=      5-min Rain = 0
KCO1 152132Z 07006KT 18/11 A2987 RMK A01 T01800111  RH  064%=      5-min Rain = 0
KCO1 152133Z 08005KT 18/11 A2986 RMK A01 T01800111  RH  064%=      5-min Rain = 0
KCO1 152134Z 11004KT 18/11 A2986 RMK A01 T01800111  RH  064%=      5-min Rain = 0
KCO1 152135Z 08002KT 18/11 A2986 RMK A01 T01810112  RH  064%=      5-min Rain = 0
KCO1 152136Z 07007KT 18/11 A2986 RMK A01 T01830113  RH  064%=      5-min Rain = 0
KCO1 152137Z 07006KT 19/11 A2986 RMK A01 T01860114  RH  063%=      5-min Rain = 0
KCO1 152138Z 06006KT 19/11 A2986 RMK A01 T01870113  RH  062%=      5-min Rain = 0
KCO1 152139Z 08007KT 19/11 A2986 RMK A01 T01860112  RH  062%=      5-min Rain = 0
KCO1 152140Z 07005KT 18/11 A2986 RMK A01 T01840112  RH  063%=      5-min Rain = 0
KCO1 152141Z 07005KT 18/11 A2986 RMK A01 T01820112  RH  063%=      5-min Rain = 0
KCO1 152142Z 07004KT 18/11 A2986 RMK A01 T01800111  RH  064%=      5-min Rain = 0
KCO1 152143Z 07005KT 18/11 A2986 RMK A01 T01810112  RH  064%=      5-min Rain = 0
KCO1 152144Z 07007KT 18/11 A2986 RMK A01 T01820113  RH  064%=      5-min Rain = 0
KCO1 152145Z 07006KT 18/11 A2986 RMK A01 T01830114  RH  064%=      5-min Rain = 0
KCO1 152146Z 06004KT 18/11 A2986 RMK A01 T01840114  RH  064%=      5-min Rain = 0
KCO1 152147Z 08005KT 19/11 A2986 RMK A01 T01850114  RH  063%=      5-min Rain = 0
KCO1 152148Z 07004KT 19/11 A2986 RMK A01 T01850113  RH  063%=      5-min Rain = 0
KCO1 152149Z 08006KT 19/11 A2986 RMK A01 T01850114  RH  063%=      5-min Rain = 0
KCO1 152150Z 07008KT 19/11 A2986 RMK A01 T01850114  RH  063%=      5-min Rain = 0
KCO1 152151Z 07006KT 19/11 A2986 RMK A01 T01860114  RH  063%=      5-min Rain = 0
KCO1 152152Z 08006KT 19/11 A2986 RMK A01 T01850113  RH  063%=      5-min Rain = 0
KCO1 152153Z 08006KT 18/11 A2986 RMK A01 T01840114  RH  063%=      5-min Rain = 0
KCO1 152154Z 09004KT 19/11 A2986 RMK A01 T01850114  RH  063%=      5-min Rain = 0
KCO1 152155Z 09003KT 18/11 A2986 RMK A01 T01840114  RH  063%=      5-min Rain = 0
KCO1 152156Z 09005KT 19/11 A2986 RMK A01 T01850114  RH  063%=      5-min Rain = 0
KCO1 152157Z 10006KT 19/11 A2986 RMK A01 T01850114  RH  063%=      5-min Rain = 0
KCO1 152158Z 11005KT 19/12 A2986 RMK A01 T01850115  RH  063%=      5-min Rain = 0
KCO1 152159Z 10006KT 19/12 A2986 RMK A01 T01850115  RH  064%=      5-min Rain = 0
KCO1 152200Z 09007KT 18/12 A2986 RMK A01 T01840115  RH  064%=      5-min Rain = 0
KCO1 152201Z 08006KT 18/11 A2986 RMK A01 T01840114  RH  063%=      5-min Rain = 0
KCO1 152202Z 08004KT 18/11 A2985 RMK A01 T01830113  RH  064%=      5-min Rain = 0
KCO1 152203Z 07004KT 18/11 A2985 RMK A01 T01820113  RH  064%=      5-min Rain = 0
KCO1 152204Z 05007KT 18/11 A2985 RMK A01 T01830113  RH  064%=      5-min Rain = 0
KCO1 152205Z 05007KT 18/11 A2985 RMK A01 T01830113  RH  064%=      5-min Rain = 0
KCO1 152206Z 07006KT 18/11 A2986 RMK A01 T01830114  RH  064%=      5-min Rain = 0
KCO1 152207Z 06005KT 18/11 A2986 RMK A01 T01830113  RH  064%=      5-min Rain = 0
KCO1 152208Z 06004KT 18/11 A2986 RMK A01 T01840113  RH  064%=      5-min Rain = 0
KCO1 152209Z 05002KT 18/11 A2986 RMK A01 T01830113  RH  064%=      5-min Rain = 0
KCO1 152210Z 06003KT 18/11 A2986 RMK A01 T01830113  RH  064%=      5-min Rain = 0
KCO1 152211Z 05005KT 18/11 A2986 RMK A01 T01820113  RH  064%=      5-min Rain = 0
KCO1 152212Z 05007KT 18/11 A2986 RMK A01 T01830113  RH  064%=      5-min Rain = 0
KCO1 152213Z 06005KT 18/11 A2986 RMK A01 T01840114  RH  064%=      5-min Rain = 0
KCO1 152214Z 07003KT 18/11 A2985 RMK A01 T01840114  RH  064%=      5-min Rain = 0
KCO1 152215Z 07007KT 18/11 A2985 RMK A01 T01840114  RH  064%=      5-min Rain = 0
KCO1 152216Z 07008KT 18/11 A2985 RMK A01 T01840114  RH  063%=      5-min Rain = 0
KCO1 152217Z 08006KT 18/11 A2985 RMK A01 T01840113  RH  064%=      5-min Rain = 0
KCO1 152218Z 10005KT 18/11 A2985 RMK A01 T01830113  RH  064%=      5-min Rain = 0
KCO1 152219Z 07004KT 18/11 A2985 RMK A01 T01830114  RH  064%=      5-min Rain = 0
KCO1 152220Z 04006KT 18/11 A2985 RMK A01 T01830113  RH  064%=      5-min Rain = 0
KCO1 152221Z 06005KT 18/11 A2985 RMK A01 T01830113  RH  064%=      5-min Rain = 0
KCO1 152222Z 03006KT 18/11 A2985 RMK A01 T01830113  RH  064%=      5-min Rain = 0
KCO1 152223Z 04006KT 18/11 A2985 RMK A01 T01830113  RH  064%=      5-min Rain = 0
KCO1 152224Z 06006KT 18/11 A2985 RMK A01 T01830113  RH  064%=      5-min Rain = 0
KCO1 152225Z 05006KT 19/11 A2985 RMK A01 T01850114  RH  063%=      5-min Rain = 0
KCO1 152226Z 04010KT 19/11 A2984 RMK A01 T01850114  RH  063%=      5-min Rain = 0
KCO1 152227Z 04009KT 18/11 A2984 RMK A01 T01840113  RH  063%=      5-min Rain = 0
KCO1 152228Z 05008KT 18/11 A2984 RMK A01 T01810113  RH  064%=      5-min Rain = 0
KCO1 152229Z 06006KT 18/11 A2984 RMK A01 T01810113  RH  065%=      5-min Rain = 0
KCO1 152230Z 06005KT 18/11 A2984 RMK A01 T01800113  RH  065%=      5-min Rain = 0
KCO1 152231Z 05006KT 18/11 A2984 RMK A01 T01810114  RH  065%=      5-min Rain = 0
KCO1 152232Z 05008KT 18/11 A2984 RMK A01 T01820114  RH  064%=      5-min Rain = 0
KCO1 152233Z 05007KT 18/11 A2984 RMK A01 T01830114  RH  064%=      5-min Rain = 0
KCO1 152234Z 03008KT 18/11 A2984 RMK A01 T01820114  RH  064%=      5-min Rain = 0
KCO1 152235Z 04008KT 18/11 A2985 RMK A01 T01800113  RH  065%=      5-min Rain = 0
KCO1 152236Z 05008KT 18/11 A2984 RMK A01 T01790113  RH  065%=      5-min Rain = 0
KCO1 152237Z 07006KT 18/11 A2984 RMK A01 T01780113  RH  066%=      5-min Rain = 0
KCO1 152238Z 07007KT 18/11 A2984 RMK A01 T01780114  RH  066%=      5-min Rain = 0
KCO1 152239Z 06008KT 18/11 A2984 RMK A01 T01790114  RH  066%=      5-min Rain = 0
KCO1 152240Z 06007KT 18/11 A2984 RMK A01 T01800114  RH  065%=      5-min Rain = 0
KCO1 152241Z 06008KT 18/11 A2984 RMK A01 T01810114  RH  065%=      5-min Rain = 0
KCO1 152242Z 07007KT 18/11 A2984 RMK A01 T01810114  RH  065%=      5-min Rain = 0
KCO1 152243Z 08006KT 18/12 A2984 RMK A01 T01820115  RH  065%=      5-min Rain = 0
KCO1 152244Z 07006KT 18/11 A2984 RMK A01 T01820114  RH  065%=      5-min Rain = 0
KCO1 152245Z 06007KT 18/11 A2984 RMK A01 T01800114  RH  065%=      5-min Rain = 0
KCO1 152246Z 08006KT 18/11 A2984 RMK A01 T01800114  RH  065%=      5-min Rain = 0
KCO1 152247Z 08008KT 18/12 A2984 RMK A01 T01800115  RH  065%=      5-min Rain = 0
KCO1 152248Z 09006KT 18/11 A2984 RMK A01 T01800114  RH  065%=      5-min Rain = 0
KCO1 152249Z 09005KT 18/11 A2984 RMK A01 T01800114  RH  065%=      5-min Rain = 0
KCO1 152250Z 07006KT 18/12 A2984 RMK A01 T01800115  RH  065%=      5-min Rain = 0
KCO1 152251Z 07007KT 18/12 A2984 RMK A01 T01800115  RH  065%=      5-min Rain = 0
KCO1 152252Z 07006KT 18/12 A2984 RMK A01 T01810115  RH  065%=      5-min Rain = 0
KCO1 152253Z 08006KT 18/12 A2984 RMK A01 T01800115  RH  065%=      5-min Rain = 0
KCO1 152254Z 08006KT 18/12 A2984 RMK A01 T01810115  RH  066%=      5-min Rain = 0
KCO1 152255Z 08005KT 18/12 A2984 RMK A01 T01800115  RH  066%=      5-min Rain = 0
KCO1 152256Z 07008KT 18/12 A2984 RMK A01 T01800115  RH  066%=      5-min Rain = 0
KCO1 152257Z 08007KT 18/12 A2984 RMK A01 T01790115  RH  066%=      5-min Rain = 0
KCO1 152258Z 08006KT 18/11 A2984 RMK A01 T01780114  RH  066%=      5-min Rain = 0
KCO1 152259Z 09005KT 18/12 A2984 RMK A01 T01780115  RH  067%=      5-min Rain = 0
KCO1 152300Z 07005KT 18/12 A2984 RMK A01 T01770115  RH  067%=      5-min Rain = 0
KCO1 152301Z 05006KT 18/12 A2984 RMK A01 T01780115  RH  067%=      5-min Rain = 0
KCO1 152302Z 05006KT 18/12 A2984 RMK A01 T01780115  RH  067%=      5-min Rain = 0
KCO1 152303Z 06005KT 18/12 A2984 RMK A01 T01770115  RH  067%=      5-min Rain = 0
KCO1 152304Z 05005KT 18/12 A2984 RMK A01 T01770115  RH  067%=      5-min Rain = 0
KCO1 152305Z 06007KT 18/12 A2984 RMK A01 T01780115  RH  067%=      5-min Rain = 0
KCO1 152306Z 07005KT 18/12 A2984 RMK A01 T01790115  RH  066%=      5-min Rain = 0
KCO1 152307Z 07004KT 18/12 A2984 RMK A01 T01790115  RH  066%=      5-min Rain = 0
KCO1 152308Z 06008KT 18/12 A2984 RMK A01 T01790115  RH  066%=      5-min Rain = 0
KCO1 152309Z 06008KT 18/12 A2984 RMK A01 T01790115  RH  066%=      5-min Rain = 0
KCO1 152310Z 07006KT 18/12 A2984 RMK A01 T01780115  RH  066%=      5-min Rain = 0
KCO1 152311Z 05006KT 18/12 A2983 RMK A01 T01780115  RH  066%=      5-min Rain = 0
KCO1 152312Z 06008KT 18/12 A2983 RMK A01 T01780115  RH  066%=      5-min Rain = 0
KCO1 152313Z 04007KT 18/12 A2983 RMK A01 T01780115  RH  067%=      5-min Rain = 0
KCO1 152314Z 04007KT 18/12 A2983 RMK A01 T01780115  RH  067%=      5-min Rain = 0
KCO1 152315Z 04007KT 18/11 A2983 RMK A01 T01780114  RH  066%=      5-min Rain = 0
KCO1 152316Z 05008KT 18/12 A2984 RMK A01 T01780115  RH  066%=      5-min Rain = 0
KCO1 152317Z 05007KT 18/12 A2984 RMK A01 T01780115  RH  066%=      5-min Rain = 0
KCO1 152318Z 07008KT 18/12 A2984 RMK A01 T01780115  RH  066%=      5-min Rain = 0
KCO1 152319Z 06009KT 18/12 A2984 RMK A01 T01780115  RH  067%=      5-min Rain = 0
KCO1 152320Z 06009KT 18/12 A2984 RMK A01 T01780115  RH  067%=      5-min Rain = 0
KCO1 152321Z 06007KT 18/12 A2983 RMK A01 T01770116  RH  067%=      5-min Rain = 0
KCO1 152322Z 07008KT 18/12 A2983 RMK A01 T01770116  RH  067%=      5-min Rain = 0
KCO1 152323Z 05006KT 18/12 A2983 RMK A01 T01770116  RH  067%=      5-min Rain = 0
KCO1 152324Z 05006KT 18/12 A2983 RMK A01 T01770116  RH  067%=      5-min Rain = 0
KCO1 152325Z 05006KT 18/12 A2983 RMK A01 T01760115  RH  067%=      5-min Rain = 0
KCO1 152326Z 07006KT 18/12 A2983 RMK A01 T01770116  RH  067%=      5-min Rain = 0
KCO1 152327Z 05005KT 18/12 A2984 RMK A01 T01760115  RH  067%=      5-min Rain = 0
KCO1 152328Z 06005KT 18/12 A2984 RMK A01 T01770115  RH  067%=      5-min Rain = 0
KCO1 152329Z 06006KT 18/12 A2984 RMK A01 T01770115  RH  067%=      5-min Rain = 0
KCO1 152330Z 06006KT 18/12 A2984 RMK A01 T01770115  RH  067%=      5-min Rain = 0
KCO1 152331Z 06007KT 18/12 A2983 RMK A01 T01760115  RH  067%=      5-min Rain = 0
KCO1 152332Z 06007KT 18/12 A2983 RMK A01 T01760115  RH  067%=      5-min Rain = 0
KCO1 152333Z 06007KT 18/12 A2983 RMK A01 T01760115  RH  068%=      5-min Rain = 0
KCO1 152334Z 07008KT 18/12 A2983 RMK A01 T01750115  RH  068%=      5-min Rain = 0
KCO1 152335Z 06008KT 18/12 A2983 RMK A01 T01750115  RH  068%=      5-min Rain = 0
KCO1 152336Z 07007KT 17/12 A2983 RMK A01 T01740115  RH  068%=      5-min Rain = 0
KCO1 152337Z 08007KT 17/12 A2983 RMK A01 T01740116  RH  068%=      5-min Rain = 0
KCO1 152338Z 08006KT 17/12 A2983 RMK A01 T01740116  RH  068%=      5-min Rain = 0
KCO1 152339Z 08007KT 17/12 A2983 RMK A01 T01740116  RH  069%=      5-min Rain = 0
KCO1 152340Z 08007KT 17/12 A2983 RMK A01 T01740116  RH  069%=      5-min Rain = 0
KCO1 152341Z 08006KT 17/12 A2983 RMK A01 T01740116  RH  069%=      5-min Rain = 0
KCO1 152342Z 08006KT 17/12 A2983 RMK A01 T01740116  RH  069%=      5-min Rain = 0
KCO1 152343Z 08007KT 17/12 A2983 RMK A01 T01740116  RH  069%=      5-min Rain = 0
KCO1 152344Z 07006KT 17/12 A2983 RMK A01 T01740116  RH  069%=      5-min Rain = 0
KCO1 152345Z 07008KT 17/12 A2983 RMK A01 T01740116  RH  069%=      5-min Rain = 0
KCO1 152346Z 07007KT 17/12 A2983 RMK A01 T01740116  RH  069%=      5-min Rain = 0
KCO1 152347Z 06007KT 17/12 A2983 RMK A01 T01730116  RH  069%=      5-min Rain = 0
KCO1 152348Z 06007KT 17/12 A2983 RMK A01 T01730116  RH  069%=      5-min Rain = 0
KCO1 152349Z 06008KT 17/12 A2983 RMK A01 T01740116  RH  069%=      5-min Rain = 0
KCO1 152350Z 07006KT 17/12 A2983 RMK A01 T01730116  RH  069%=      5-min Rain = 0
KCO1 152351Z 06007KT 17/12 A2983 RMK A01 T01730116  RH  069%=      5-min Rain = 0
KCO1 152352Z 06008KT 17/12 A2983 RMK A01 T01730116  RH  069%=      5-min Rain = 0
KCO1 152353Z 06007KT 17/12 A2983 RMK A01 T01720115  RH  069%=      5-min Rain = 0
KCO1 152354Z 06006KT 17/12 A2983 RMK A01 T01720115  RH  069%=      5-min Rain = 0
KCO1 152355Z 06007KT 17/12 A2983 RMK A01 T01730116  RH  069%=      5-min Rain = 0
KCO1 152356Z 06008KT 17/12 A2983 RMK A01 T01730116  RH  069%=      5-min Rain = 0
KCO1 152357Z 07007KT 17/12 A2983 RMK A01 T01730116  RH  069%=      5-min Rain = 0
KCO1 152358Z 07007KT 17/12 A2983 RMK A01 T01730115  RH  069%=      5-min Rain = 0
KCO1 152359Z 07008KT 17/12 A2983 RMK A01 T01730115  RH  069%=      5-min Rain = 0
KCO1 160000Z 07008KT 17/12 A2982 RMK A01 T01720115  RH  069%=      5-min Rain = 0
KCO1 160001Z 06008KT 17/12 A2982 RMK A01 T01730116  RH  069%=      5-min Rain = 0
KCO1 160002Z 07009KT 17/12 A2982 RMK A01 T01720116  RH  069%=      5-min Rain = 0
KCO1 160003Z 07009KT 17/12 A2982 RMK A01 T01720116  RH  070%=      5-min Rain = 0
KCO1 160004Z 07009KT 17/12 A2982 RMK A01 T01720116  RH  070%=      5-min Rain = 0
KCO1 160005Z 07009KT 17/12 A2982 RMK A01 T01720116  RH  070%=      5-min Rain = 0
KCO1 160006Z 06008KT 17/12 A2982 RMK A01 T01720116  RH  070%=      5-min Rain = 0
KCO1 160007Z 06009KT 17/12 A2982 RMK A01 T01710116  RH  070%=      5-min Rain = 0
KCO1 160008Z 07008KT 17/12 A2982 RMK A01 T01720116  RH  070%=      5-min Rain = 0
KCO1 160009Z 07010KT 17/12 A2982 RMK A01 T01710116  RH  070%=      5-min Rain = 0
KCO1 160010Z 06008KT 17/12 A2982 RMK A01 T01710116  RH  070%=      5-min Rain = 0
KCO1 160011Z 06009KT 17/12 A2983 RMK A01 T01710116  RH  070%=      5-min Rain = 0
KCO1 160012Z 06008KT 17/12 A2983 RMK A01 T01710115  RH  070%=      5-min Rain = 0
KCO1 160013Z 06007KT 17/12 A2983 RMK A01 T01710116  RH  070%=      5-min Rain = 0
KCO1 160014Z 07007KT 17/12 A2982 RMK A01 T01710116  RH  070%=      5-min Rain = 0
KCO1 160015Z 06007KT 17/12 A2982 RMK A01 T01710116  RH  070%=      5-min Rain = 0
KCO1 160016Z 06007KT 17/12 A2982 RMK A01 T01710116  RH  070%=      5-min Rain = 0
KCO1 160017Z 06008KT 17/12 A2982 RMK A01 T01710115  RH  070%=      5-min Rain = 0
KCO1 160018Z 06009KT 17/12 A2982 RMK A01 T01710116  RH  070%=      5-min Rain = 0
KCO1 160019Z 06009KT 17/12 A2982 RMK A01 T01710115  RH  070%=      5-min Rain = 0
KCO1 160020Z 06009KT 17/12 A2982 RMK A01 T01710116  RH  070%=      5-min Rain = 0
KCO1 160021Z 06011KT 17/12 A2982 RMK A01 T01710116  RH  070%=      5-min Rain = 0
KCO1 160022Z 06010KT 17/12 A2982 RMK A01 T01710116  RH  070%=      5-min Rain = 0
KCO1 160023Z 06010KT 17/12 A2982 RMK A01 T01700116  RH  070%=      5-min Rain = 0
KCO1 160024Z 06008KT 17/12 A2982 RMK A01 T01710116  RH  070%=      5-min Rain = 0
KCO1 160025Z 06008KT 17/12 A2982 RMK A01 T01710116  RH  070%=      5-min Rain = 0
KCO1 160026Z 07007KT 17/12 A2982 RMK A01 T01710116  RH  070%=      5-min Rain = 0
KCO1 160027Z 06010KT 17/12 A2982 RMK A01 T01710116  RH  070%=      5-min Rain = 0
KCO1 160028Z 07009KT 17/12 A2982 RMK A01 T01710116  RH  070%=      5-min Rain = 0
KCO1 160029Z 07008KT 17/12 A2982 RMK A01 T01700116  RH  070%=      5-min Rain = 0
KCO1 160030Z 06009KT 17/12 A2982 RMK A01 T01700116  RH  070%=      5-min Rain = 0
KCO1 160031Z 07009KT 17/12 A2982 RMK A01 T01700116  RH  070%=      5-min Rain = 0
KCO1 160032Z 07010KT 17/12 A2982 RMK A01 T01700116  RH  071%=      5-min Rain = 0
KCO1 160033Z 07011KT 17/12 A2982 RMK A01 T01700116  RH  071%=      5-min Rain = 0
KCO1 160034Z 07009KT 17/12 A2982 RMK A01 T01690116  RH  071%=      5-min Rain = 0
KCO1 160035Z 07007KT 17/12 A2982 RMK A01 T01690116  RH  071%=      5-min Rain = 0
KCO1 160036Z 07008KT 17/12 A2982 RMK A01 T01690116  RH  071%=      5-min Rain = 0
KCO1 160037Z 07008KT 17/12 A2982 RMK A01 T01690116  RH  071%=      5-min Rain = 0
KCO1 160038Z 07007KT 17/12 A2982 RMK A01 T01690116  RH  071%=      5-min Rain = 0
KCO1 160039Z 07009KT 17/12 A2982 RMK A01 T01690116  RH  071%=      5-min Rain = 0
KCO1 160040Z 07008KT 17/12 A2982 RMK A01 T01690117  RH  071%=      5-min Rain = 0
KCO1 160041Z 07010KT 17/12 A2982 RMK A01 T01680116  RH  071%=      5-min Rain = 0
KCO1 160042Z 07008KT 17/12 A2982 RMK A01 T01680117  RH  072%=      5-min Rain = 0
KCO1 160043Z 07007KT 17/12 A2982 RMK A01 T01680117  RH  072%=      5-min Rain = 0
KCO1 160044Z 07009KT 17/12 A2983 RMK A01 T01680116  RH  072%=      5-min Rain = 0
KCO1 160045Z 07007KT 17/12 A2983 RMK A01 T01680117  RH  072%=      5-min Rain = 0
KCO1 160046Z 07009KT 17/12 A2982 RMK A01 T01680117  RH  072%=      5-min Rain = 0
KCO1 160047Z 06009KT 17/12 A2982 RMK A01 T01680117  RH  072%=      5-min Rain = 0
KCO1 160048Z 07008KT 17/12 A2982 RMK A01 T01680117  RH  072%=      5-min Rain = 0
KCO1 160049Z 07008KT 17/12 A2982 RMK A01 T01680117  RH  072%=      5-min Rain = 0
KCO1 160050Z 07008KT 17/12 A2982 RMK A01 T01670117  RH  072%=      5-min Rain = 0
KCO1 160051Z 07008KT 17/12 A2982 RMK A01 T01680117  RH  072%=      5-min Rain = 0
KCO1 160052Z 07008KT 17/12 A2982 RMK A01 T01670117  RH  072%=      5-min Rain = 0
KCO1 160053Z 08008KT 17/12 A2982 RMK A01 T01670117  RH  072%=      5-min Rain = 0
KCO1 160054Z 08007KT 17/12 A2982 RMK A01 T01670117  RH  072%=      5-min Rain = 0
KCO1 160055Z 07007KT 17/12 A2982 RMK A01 T01670117  RH  072%=      5-min Rain = 0
KCO1 160056Z 07008KT 17/12 A2982 RMK A01 T01670117  RH  072%=      5-min Rain = 0
KCO1 160057Z 07009KT 17/12 A2982 RMK A01 T01670117  RH  072%=      5-min Rain = 0
KCO1 160058Z 07010KT 17/12 A2982 RMK A01 T01660117  RH  072%=      5-min Rain = 0
KCO1 160059Z 07010KT 17/12 A2982 RMK A01 T01660117  RH  073%=      5-min Rain = 0
KCO1 160100Z 07008KT 17/12 A2982 RMK A01 T01660117  RH  073%=      5-min Rain = 0
KCO1 160101Z 07011KT 17/12 A2982 RMK A01 T01660117  RH  073%=      5-min Rain = 0
KCO1 160102Z 08010KT 17/12 A2982 RMK A01 T01650117  RH  073%=      5-min Rain = 0
KCO1 160103Z 08010KT 17/12 A2982 RMK A01 T01650117  RH  073%=      5-min Rain = 0
KCO1 160104Z 08010KT 17/12 A2982 RMK A01 T01650117  RH  073%=      5-min Rain = 0
KCO1 160105Z 08010KT 17/12 A2982 RMK A01 T01650117  RH  073%=      5-min Rain = 0
KCO1 160106Z 08010KT 17/12 A2982 RMK A01 T01650117  RH  073%=      5-min Rain = 0
KCO1 160107Z 07011KT 17/12 A2982 RMK A01 T01650117  RH  073%=      5-min Rain = 0
KCO1 160108Z 08011KT 16/12 A2982 RMK A01 T01640117  RH  074%=      5-min Rain = 0
KCO1 160109Z 07011KT 16/12 A2982 RMK A01 T01640117  RH  074%=      5-min Rain = 0
KCO1 160110Z 07009KT 16/12 A2982 RMK A01 T01640117  RH  074%=      5-min Rain = 0
KCO1 160111Z 07009KT 16/12 A2982 RMK A01 T01640118  RH  074%=      5-min Rain = 0
KCO1 160112Z 06009KT 16/12 A2982 RMK A01 T01640118  RH  074%=      5-min Rain = 0
KCO1 160113Z 07008KT 16/12 A2982 RMK A01 T01630117  RH  074%=      5-min Rain = 0
KCO1 160114Z 07007KT 16/12 A2982 RMK A01 T01630117  RH  074%=      5-min Rain = 0
KCO1 160115Z 07010KT 16/12 A2982 RMK A01 T01630118  RH  074%=      5-min Rain = 0
KCO1 160116Z 07012KT 16/12 A2982 RMK A01 T01630117  RH  074%=      5-min Rain = 0
KCO1 160117Z 07011KT 16/12 A2982 RMK A01 T01630118  RH  075%=      5-min Rain = 0
KCO1 160118Z 08011KT 16/12 A2982 RMK A01 T01630118  RH  075%=      5-min Rain = 0
KCO1 160119Z 07010KT 16/12 A2982 RMK A01 T01630118  RH  075%=      5-min Rain = 0
KCO1 160120Z 07010KT 16/12 A2983 RMK A01 T01620117  RH  075%=      5-min Rain = 0
KCO1 160121Z 07009KT 16/12 A2983 RMK A01 T01620117  RH  075%=      5-min Rain = 0
KCO1 160122Z 07008KT 16/12 A2983 RMK A01 T01620117  RH  075%=      5-min Rain = 0
KCO1 160123Z 07008KT 16/12 A2983 RMK A01 T01620117  RH  075%=      5-min Rain = 0
KCO1 160124Z 07009KT 16/12 A2983 RMK A01 T01610117  RH  075%=      5-min Rain = 0
KCO1 160125Z 07009KT 16/12 A2983 RMK A01 T01610117  RH  075%=      5-min Rain = 0
KCO1 160126Z 08009KT 16/12 A2983 RMK A01 T01610117  RH  075%=      5-min Rain = 0
KCO1 160127Z 08009KT 16/12 A2982 RMK A01 T01610116  RH  075%=      5-min Rain = 0
KCO1 160128Z 08011KT 16/12 A2982 RMK A01 T01600117  RH  075%=      5-min Rain = 0
KCO1 160129Z 07008KT 16/12 A2982 RMK A01 T01600117  RH  075%=      5-min Rain = 0
KCO1 160130Z 08010KT 16/12 A2982 RMK A01 T01600117  RH  076%=      5-min Rain = 0
KCO1 160131Z 08011KT 16/12 A2982 RMK A01 T01590117  RH  076%=      5-min Rain = 0
KCO1 160132Z 08010KT 16/12 A2982 RMK A01 T01590118  RH  076%=      5-min Rain = 0
KCO1 160133Z 08010KT 16/12 A2982 RMK A01 T01590118  RH  077%=      5-min Rain = 0
KCO1 160134Z 08009KT 16/12 A2982 RMK A01 T01580118  RH  077%=      5-min Rain = 0
KCO1 160135Z 08009KT 16/12 A2983 RMK A01 T01580118  RH  077%=      5-min Rain = 0
KCO1 160136Z 07010KT 16/12 A2983 RMK A01 T01580118  RH  077%=      5-min Rain = 0
KCO1 160137Z 08012KT 16/12 A2982 RMK A01 T01580119  RH  077%=      5-min Rain = 0
KCO1 160138Z 07012KT 16/12 A2982 RMK A01 T01580119  RH  078%=      5-min Rain = 0
KCO1 160139Z 08011KT 16/12 A2982 RMK A01 T01570118  RH  078%=      5-min Rain = 0
KCO1 160140Z 07009KT 16/12 A2982 RMK A01 T01570119  RH  078%=      5-min Rain = 0
KCO1 160141Z 07010KT 16/12 A2982 RMK A01 T01570118  RH  078%=      5-min Rain = 0
KCO1 160142Z 07009KT 16/12 A2982 RMK A01 T01570119  RH  078%=      5-min Rain = 0
KCO1 160143Z 07009KT 16/12 A2983 RMK A01 T01570118  RH  078%=      5-min Rain = 0
KCO1 160144Z 07009KT 16/12 A2983 RMK A01 T01570119  RH  078%=      5-min Rain = 0
KCO1 160145Z 08007KT 16/12 A2983 RMK A01 T01570119  RH  078%=      5-min Rain = 0
KCO1 160146Z 08006KT 16/12 A2983 RMK A01 T01570119  RH  078%=      5-min Rain = 0
KCO1 160147Z 07008KT 16/12 A2983 RMK A01 T01570119  RH  078%=      5-min Rain = 0
KCO1 160148Z 07008KT 16/12 A2983 RMK A01 T01570119  RH  078%=      5-min Rain = 0
KCO1 160149Z 07011KT 16/12 A2983 RMK A01 T01570119  RH  078%=      5-min Rain = 0
KCO1 160150Z 07011KT 16/12 A2983 RMK A01 T01570120  RH  078%=      5-min Rain = 0
KCO1 160151Z 07011KT 16/12 A2982 RMK A01 T01570120  RH  078%=      5-min Rain = 0
KCO1 160152Z 07010KT 16/12 A2982 RMK A01 T01570120  RH  078%=      5-min Rain = 0
KCO1 160153Z 08010KT 16/12 A2982 RMK A01 T01570120  RH  078%=      5-min Rain = 0
KCO1 160154Z 08011KT 16/12 A2982 RMK A01 T01570120  RH  078%=      5-min Rain = 0
KCO1 160155Z 07011KT 16/12 A2983 RMK A01 T01570120  RH  079%=      5-min Rain = 0
KCO1 160156Z 07011KT 16/12 A2983 RMK A01 T01570120  RH  079%=      5-min Rain = 0
KCO1 160157Z 07011KT 16/12 A2983 RMK A01 T01570120  RH  079%=      5-min Rain = 0
KCO1 160158Z 08011KT 16/12 A2983 RMK A01 T01570120  RH  079%=      5-min Rain = 0
KCO1 160159Z 08009KT 16/12 A2983 RMK A01 T01570120  RH  079%=      5-min Rain = 0
KCO1 160200Z 08008KT 16/12 A2983 RMK A01 T01570120  RH  079%=      5-min Rain = 0
KCO1 160201Z 07008KT 16/12 A2983 RMK A01 T01570120  RH  078%=      5-min Rain = 0
KCO1 160202Z 08010KT 16/12 A2983 RMK A01 T01570120  RH  078%=      5-min Rain = 0
KCO1 160203Z 07011KT 16/12 A2983 RMK A01 T01570119  RH  078%=      5-min Rain = 0
KCO1 160204Z 07009KT 16/12 A2983 RMK A01 T01570119  RH  078%=      5-min Rain = 0
KCO1 160205Z 07008KT 16/12 A2983 RMK A01 T01570120  RH  078%=      5-min Rain = 0
KCO1 160206Z 08009KT 16/12 A2983 RMK A01 T01570119  RH  078%=      5-min Rain = 0
KCO1 160207Z 07007KT 16/12 A2983 RMK A01 T01570119  RH  078%=      5-min Rain = 0
KCO1 160208Z 07010KT 16/12 A2983 RMK A01 T01570119  RH  078%=      5-min Rain = 0
KCO1 160209Z 07009KT 16/12 A2983 RMK A01 T01570119  RH  078%=      5-min Rain = 0
KCO1 160210Z 07008KT 16/12 A2983 RMK A01 T01570119  RH  078%=      5-min Rain = 0
KCO1 160211Z 07008KT 16/12 A2983 RMK A01 T01570119  RH  078%=      5-min Rain = 0
KCO1 160212Z 07007KT 16/12 A2983 RMK A01 T01570119  RH  078%=      5-min Rain = 0
KCO1 160213Z 07007KT 16/12 A2983 RMK A01 T01570119  RH  078%=      5-min Rain = 0
KCO1 160214Z 07009KT 16/12 A2983 RMK A01 T01570119  RH  078%=      5-min Rain = 0
KCO1 160215Z 07010KT 16/12 A2983 RMK A01 T01580120  RH  078%=      5-min Rain = 0
KCO1 160216Z 07010KT 16/12 A2983 RMK A01 T01580120  RH  078%=      5-min Rain = 0
KCO1 160217Z 07008KT 16/12 A2983 RMK A01 T01580121  RH  078%=      5-min Rain = 0
KCO1 160218Z 07008KT 16/12 A2983 RMK A01 T01580120  RH  078%=      5-min Rain = 0
KCO1 160219Z 07009KT 16/12 A2983 RMK A01 T01580121  RH  079%=      5-min Rain = 0
KCO1 160220Z 07007KT 16/12 A2983 RMK A01 T01580121  RH  079%=      5-min Rain = 0
KCO1 160221Z 07008KT 16/12 A2983 RMK A01 T01580121  RH  079%=      5-min Rain = 0
KCO1 160222Z 07010KT 16/12 A2983 RMK A01 T01580121  RH  079%=      5-min Rain = 0
KCO1 160223Z 07009KT 16/12 A2983 RMK A01 T01580121  RH  079%=      5-min Rain = 0
KCO1 160224Z 07011KT 16/12 A2983 RMK A01 T01570121  RH  079%=      5-min Rain = 0
KCO1 160225Z 07010KT 16/12 A2983 RMK A01 T01570122  RH  079%=      5-min Rain = 0
KCO1 160226Z 08008KT 16/12 A2983 RMK A01 T01570122  RH  080%=      5-min Rain = 0
KCO1 160227Z 08009KT 16/12 A2983 RMK A01 T01560122  RH  080%=      5-min Rain = 0
KCO1 160228Z 08011KT 16/12 A2983 RMK A01 T01560122  RH  080%=      5-min Rain = 0
KCO1 160229Z 08008KT 16/12 A2983 RMK A01 T01560122  RH  080%=      5-min Rain = 0
KCO1 160230Z 08009KT 16/12 A2983 RMK A01 T01550122  RH  080%=      5-min Rain = 0
KCO1 160231Z 07008KT 16/12 A2983 RMK A01 T01550122  RH  081%=      5-min Rain = 0
KCO1 160232Z 07009KT 16/12 A2983 RMK A01 T01550122  RH  081%=      5-min Rain = 0
KCO1 160233Z 08009KT 16/12 A2983 RMK A01 T01550122  RH  081%=      5-min Rain = 0
KCO1 160234Z 08008KT 16/12 A2983 RMK A01 T01550122  RH  081%=      5-min Rain = 0
KCO1 160235Z 08009KT 16/12 A2983 RMK A01 T01550123  RH  081%=      5-min Rain = 0
KCO1 160236Z 08007G12KT 16/12 A2983 RMK A01 T01550123  RH  081%=      5-min Rain = 0
KCO1 160237Z 07009KT 16/12 A2983 RMK A01 T01550123  RH  081%=      5-min Rain = 0
KCO1 160238Z 07010KT 16/12 A2983 RMK A01 T01550123  RH  081%=      5-min Rain = 0
KCO1 160239Z 07011KT 16/12 A2983 RMK A01 T01550123  RH  081%=      5-min Rain = 0
KCO1 160240Z 07009KT 16/12 A2983 RMK A01 T01550123  RH  081%=      5-min Rain = 0
KCO1 160241Z 06007KT 15/12 A2983 RMK A01 T01540123  RH  082%=      5-min Rain = 0
KCO1 160242Z 06007KT 15/12 A2983 RMK A01 T01540122  RH  081%=      5-min Rain = 0
KCO1 160243Z 06011KT 15/12 A2984 RMK A01 T01540123  RH  081%=      5-min Rain = 0
KCO1 160244Z 06009KT 15/12 A2984 RMK A01 T01540123  RH  082%=      5-min Rain = 0
KCO1 160245Z 06010KT 15/12 A2984 RMK A01 T01540123  RH  082%=      5-min Rain = 0
KCO1 160246Z 06010KT 15/12 A2984 RMK A01 T01540123  RH  082%=      5-min Rain = 0
KCO1 160247Z 07010KT 15/12 A2984 RMK A01 T01540123  RH  082%=      5-min Rain = 0
KCO1 160248Z 07012KT 15/12 A2984 RMK A01 T01540123  RH  082%=      5-min Rain = 0
KCO1 160249Z 07010KT 15/12 A2984 RMK A01 T01540123  RH  082%=      5-min Rain = 0
KCO1 160250Z 07009KT 15/12 A2984 RMK A01 T01540124  RH  082%=      5-min Rain = 0
KCO1 160251Z 07011KT 15/12 A2984 RMK A01 T01540123  RH  082%=      5-min Rain = 0
KCO1 160252Z 07009KT 15/12 A2984 RMK A01 T01540124  RH  082%=      5-min Rain = 0
KCO1 160253Z 07009KT 15/12 A2984 RMK A01 T01540124  RH  082%=      5-min Rain = 0
KCO1 160254Z 07008KT 15/12 A2984 RMK A01 T01540124  RH  082%=      5-min Rain = 0
KCO1 160255Z 07009KT 15/12 A2984 RMK A01 T01540124  RH  082%=      5-min Rain = 0
KCO1 160256Z 07008KT 15/12 A2984 RMK A01 T01540124  RH  082%=      5-min Rain = 0
KCO1 160257Z 06008KT 15/12 A2984 RMK A01 T01540124  RH  082%=      5-min Rain = 0
KCO1 160258Z 07009KT 15/12 A2984 RMK A01 T01540124  RH  082%=      5-min Rain = 0
KCO1 160259Z 06010KT 15/12 A2984 RMK A01 T01540124  RH  083%=      5-min Rain = 0
KCO1 160300Z 06009KT 15/13 A2984 RMK A01 T01540125  RH  083%=      5-min Rain = 0
KCO1 160301Z 07009KT 15/13 A2984 RMK A01 T01540125  RH  083%=      5-min Rain = 0
KCO1 160302Z 06009KT 15/13 A2984 RMK A01 T01540125  RH  083%=      5-min Rain = 0
KCO1 160303Z 06009KT 15/13 A2984 RMK A01 T01540125  RH  083%=      5-min Rain = 0
KCO1 160304Z 06010KT 15/13 A2984 RMK A01 T01540125  RH  083%=      5-min Rain = 0
KCO1 160305Z 07009KT 15/13 A2984 RMK A01 T01530125  RH  083%=      5-min Rain = 0
KCO1 160306Z 07010KT 15/13 A2984 RMK A01 T01530125  RH  083%=      5-min Rain = 0
KCO1 160307Z 07010KT 15/13 A2984 RMK A01 T01530125  RH  083%=      5-min Rain = 0
KCO1 160308Z 07009KT 15/13 A2984 RMK A01 T01530126  RH  083%=      5-min Rain = 0
KCO1 160309Z 07010KT 15/13 A2983 RMK A01 T01530126  RH  083%=      5-min Rain = 0
KCO1 160310Z 07010KT 15/13 A2983 RMK A01 T01530126  RH  083%=      5-min Rain = 0
KCO1 160311Z 07009KT 15/13 A2983 RMK A01 T01530126  RH  083%=      5-min Rain = 0
KCO1 160312Z 07011KT 15/13 A2984 RMK A01 T01530126  RH  084%=      5-min Rain = 0
KCO1 160313Z 08010KT 15/13 A2984 RMK A01 T01530126  RH  084%=      5-min Rain = 0
KCO1 160314Z 07008KT 15/13 A2984 RMK A01 T01530126  RH  084%=      5-min Rain = 0
KCO1 160315Z 07009KT 15/13 A2984 RMK A01 T01530126  RH  084%=      5-min Rain = 0
KCO1 160316Z 07008KT 15/13 A2984 RMK A01 T01530126  RH  084%=      5-min Rain = 0
KCO1 160317Z 07007KT 15/13 A2984 RMK A01 T01530127  RH  084%=      5-min Rain = 0
KCO1 160318Z 06008KT 15/13 A2984 RMK A01 T01530127  RH  084%=      5-min Rain = 0
KCO1 160319Z 07007KT 15/13 A2984 RMK A01 T01530127  RH  084%=      5-min Rain = 0
KCO1 160320Z 07007KT 15/13 A2984 RMK A01 T01530127  RH  085%=      5-min Rain = 0
KCO1 160321Z 07009KT 15/13 A2984 RMK A01 T01530128  RH  085%=      5-min Rain = 0
KCO1 160322Z 06008KT 15/13 A2984 RMK A01 T01530128  RH  085%=      5-min Rain = 0
KCO1 160323Z 06008KT 15/13 A2984 RMK A01 T01530128  RH  085%=      5-min Rain = 0
KCO1 160324Z 06008KT 15/13 A2984 RMK A01 T01540129  RH  085%=      5-min Rain = 0
KCO1 160325Z 06008KT 15/13 A2984 RMK A01 T01530129  RH  085%=      5-min Rain = 0
KCO1 160326Z 06008KT 15/13 A2984 RMK A01 T01530129  RH  086%=      5-min Rain = 0
KCO1 160327Z 06008KT 15/13 A2984 RMK A01 T01530129  RH  086%=      5-min Rain = 0
KCO1 160328Z 06008KT 15/13 A2984 RMK A01 T01530129  RH  086%=      5-min Rain = 0
KCO1 160329Z 06009KT 15/13 A2984 RMK A01 T01530129  RH  086%=      5-min Rain = 0
KCO1 160330Z 06008KT 15/13 A2984 RMK A01 T01530129  RH  086%=      5-min Rain = 0
KCO1 160331Z 06008KT 15/13 A2984 RMK A01 T01530129  RH  086%=      5-min Rain = 0
KCO1 160332Z 07007KT 15/13 A2984 RMK A01 T01530130  RH  086%=      5-min Rain = 0
KCO1 160333Z 07008KT 15/13 A2984 RMK A01 T01530130  RH  086%=      5-min Rain = 0
KCO1 160334Z 06007KT 15/13 A2984 RMK A01 T01520130  RH  087%=      5-min Rain = 0
KCO1 160335Z 06008KT 15/13 A2984 RMK A01 T01520131  RH  087%=      5-min Rain = 0
KCO1 160336Z 06008KT 15/13 A2984 RMK A01 T01520131  RH  087%=      5-min Rain = 0
KCO1 160337Z 06007KT 15/13 A2984 RMK A01 T01520131  RH  087%=      5-min Rain = 0
KCO1 160338Z 06009KT 15/13 A2984 RMK A01 T01520132  RH  088%=      5-min Rain = 0
KCO1 160339Z 06008KT 15/13 A2984 RMK A01 T01510132  RH  088%=      5-min Rain = 0
KCO1 160340Z 06009KT 15/13 A2984 RMK A01 T01510132  RH  088%=      5-min Rain = 0
KCO1 160341Z 06009KT 15/13 A2984 RMK A01 T01510132  RH  088%=      5-min Rain = 0
KCO1 160342Z 06007KT 15/13 A2984 RMK A01 T01510132  RH  088%=      5-min Rain = 0
KCO1 160343Z 06007KT 15/13 A2985 RMK A01 T01510132  RH  088%=      5-min Rain = 0
KCO1 160344Z 05008KT 15/13 A2985 RMK A01 T01520132  RH  088%=      5-min Rain = 0
KCO1 160345Z 05008KT 15/13 A2985 RMK A01 T01520132  RH  088%=      5-min Rain = 0
KCO1 160346Z 05006KT 15/13 A2985 RMK A01 T01510132  RH  088%=      5-min Rain = 0
KCO1 160347Z 05008KT 15/13 A2985 RMK A01 T01510132  RH  088%=      5-min Rain = 0
KCO1 160348Z 05008KT 15/13 A2985 RMK A01 T01520132  RH  088%=      5-min Rain = 0
KCO1 160349Z 06006KT 15/13 A2984 RMK A01 T01510132  RH  088%=      5-min Rain = 0
KCO1 160350Z 06006KT 15/13 A2985 RMK A01 T01510132  RH  088%=      5-min Rain = 0
KCO1 160351Z 06007KT 15/13 A2985 RMK A01 T01520132  RH  088%=      5-min Rain = 0
KCO1 160352Z 06005KT 15/13 A2985 RMK A01 T01520132  RH  088%=      5-min Rain = 0
KCO1 160353Z 05007KT 15/13 A2985 RMK A01 T01520132  RH  088%=      5-min Rain = 0
KCO1 160354Z 06008KT 15/13 A2985 RMK A01 T01520132  RH  088%=      5-min Rain = 0
KCO1 160355Z 06006KT 15/13 A2985 RMK A01 T01520133  RH  088%=      5-min Rain = 0
KCO1 160356Z 06008KT 15/13 A2985 RMK A01 T01520133  RH  088%=      5-min Rain = 0
KCO1 160357Z 06008KT 15/13 A2985 RMK A01 T01520133  RH  089%=      5-min Rain = 0
KCO1 160358Z 07007KT 15/13 A2985 RMK A01 T01520133  RH  089%=      5-min Rain = 0
KCO1 160359Z 07007KT 15/13 A2985 RMK A01 T01520133  RH  089%=      5-min Rain = 0
KCO1 160400Z 06005KT 15/13 A2985 RMK A01 T01520134  RH  089%=      5-min Rain = 0
KCO1 160401Z 05006KT 15/13 A2985 RMK A01 T01520133  RH  089%=      5-min Rain = 0
KCO1 160402Z 05006KT 15/13 A2985 RMK A01 T01520133  RH  089%=      5-min Rain = 0
KCO1 160403Z 05005KT 15/13 A2985 RMK A01 T01520133  RH  089%=      5-min Rain = 0
KCO1 160404Z 04007KT 15/13 A2985 RMK A01 T01520133  RH  089%=      5-min Rain = 0
KCO1 160405Z 04006KT 15/13 A2986 RMK A01 T01520134  RH  089%=      5-min Rain = 0
KCO1 160406Z 03005KT 15/13 A2986 RMK A01 T01520134  RH  089%=      5-min Rain = 0
KCO1 160407Z 03005KT 15/13 A2986 RMK A01 T01520134  RH  089%=      5-min Rain = 0
KCO1 160408Z 02006KT 15/13 A2986 RMK A01 T01520134  RH  089%=      5-min Rain = 0
KCO1 160409Z 02007KT 15/13 A2986 RMK A01 T01520133  RH  089%=      5-min Rain = 0
KCO1 160410Z 02006KT 15/13 A2986 RMK A01 T01520133  RH  088%=      5-min Rain = 0
KCO1 160411Z 01006KT 15/13 A2986 RMK A01 T01520133  RH  088%=      5-min Rain = 0
KCO1 160412Z 01005KT 15/13 A2986 RMK A01 T01520133  RH  088%=      5-min Rain = 0
KCO1 160413Z 01007KT 15/13 A2986 RMK A01 T01520132  RH  088%=      5-min Rain = 0
KCO1 160414Z 01007KT 15/13 A2986 RMK A01 T01520131  RH  088%=      5-min Rain = 0
KCO1 160415Z 02006KT 15/13 A2986 RMK A01 T01510131  RH  088%=      5-min Rain = 0
KCO1 160416Z 02007KT 15/13 A2986 RMK A01 T01510131  RH  088%=      5-min Rain = 0
KCO1 160417Z 03007KT 15/13 A2986 RMK A01 T01510131  RH  088%=      5-min Rain = 0
KCO1 160418Z 03007KT 15/13 A2986 RMK A01 T01510131  RH  088%=      5-min Rain = 0
KCO1 160419Z 03007KT 15/13 A2986 RMK A01 T01500131  RH  088%=      5-min Rain = 0
KCO1 160420Z 03007KT 15/13 A2986 RMK A01 T01500131  RH  089%=      5-min Rain = 0
KCO1 160421Z 02007KT 15/13 A2986 RMK A01 T01500132  RH  089%=      5-min Rain = 0
KCO1 160422Z 02007KT 15/13 A2986 RMK A01 T01490132  RH  089%=      5-min Rain = 0
KCO1 160423Z 01006KT 15/13 A2986 RMK A01 T01490132  RH  090%=      5-min Rain = 0
KCO1 160424Z 01006KT 15/13 A2986 RMK A01 T01490132  RH  090%=      5-min Rain = 0
KCO1 160425Z 01006KT 15/13 A2986 RMK A01 T01490132  RH  090%=      5-min Rain = 0
KCO1 160426Z 00006KT 15/13 A2986 RMK A01 T01480132  RH  090%=      5-min Rain = 0
KCO1 160427Z 00006KT 15/13 A2986 RMK A01 T01490132  RH  090%=      5-min Rain = 0
KCO1 160428Z 00005KT 15/13 A2986 RMK A01 T01490132  RH  090%=      5-min Rain = 0
KCO1 160429Z 01007KT 15/13 A2986 RMK A01 T01490133  RH  090%=      5-min Rain = 0
KCO1 160430Z 02006KT 15/13 A2986 RMK A01 T01480133  RH  091%=      5-min Rain = 0
KCO1 160431Z 03006KT 15/13 A2986 RMK A01 T01480134  RH  092%=      5-min Rain = 0
KCO1 160432Z 03005KT 15/14 A2986 RMK A01 T01480135  RH  092%=      5-min Rain = 0
KCO1 160433Z 03006KT 15/14 A2986 RMK A01 T01480136  RH  093%=      5-min Rain = 0
KCO1 160434Z 03006KT 15/14 A2986 RMK A01 T01470136  RH  093%=      5-min Rain = 0
KCO1 160435Z 02005KT 15/14 A2986 RMK A01 T01470136  RH  093%=      5-min Rain = 0
KCO1 160436Z 01006KT 15/14 A2986 RMK A01 T01460137  RH  094%=      5-min Rain = 0
KCO1 160437Z 01006KT 15/14 A2986 RMK A01 T01460137  RH  094%=      5-min Rain = 0
KCO1 160438Z 01007KT 15/14 A2986 RMK A01 T01460138  RH  095%=      5-min Rain = 0
KCO1 160439Z 00007KT 15/14 A2986 RMK A01 T01460138  RH  095%=      5-min Rain = 0
KCO1 160440Z 01005KT 15/14 A2986 RMK A01 T01460139  RH  095%=      5-min Rain = 0
KCO1 160441Z 01005KT 15/14 A2986 RMK A01 T01460139  RH  095%=      5-min Rain = 0
KCO1 160442Z 01004KT 15/14 A2986 RMK A01 T01460140  RH  096%=      5-min Rain = 0
KCO1 160443Z 02005KT 15/14 A2986 RMK A01 T01460140  RH  096%=      5-min Rain = 0
KCO1 160444Z 02006KT 15/14 A2986 RMK A01 T01460139  RH  096%=      5-min Rain = 0
KCO1 160445Z 02005KT 15/14 A2986 RMK A01 T01460139  RH  096%=      5-min Rain = 0
KCO1 160446Z 01006KT 15/14 A2986 RMK A01 T01450139  RH  096%=      5-min Rain = 0
KCO1 160447Z 01005KT 15/14 A2986 RMK A01 T01450139  RH  096%=      5-min Rain = 0
KCO1 160448Z 01006KT 15/14 A2986 RMK A01 T01450139  RH  096%=      5-min Rain = 0
KCO1 160449Z 36005KT 15/14 A2986 RMK A01 T01450139  RH  096%=      5-min Rain = 0
KCO1 160450Z 01005KT 15/14 A2986 RMK A01 T01450139  RH  096%=      5-min Rain = 0
KCO1 160451Z 01005KT 15/14 A2987 RMK A01 T01450139  RH  096%=      5-min Rain = 0
KCO1 160452Z 01006KT 15/14 A2986 RMK A01 T01450140  RH  097%=      5-min Rain = 0
KCO1 160453Z 02006KT 15/14 A2986 RMK A01 T01450140  RH  097%=      5-min Rain = 0
KCO1 160454Z 03006KT 15/14 A2986 RMK A01 T01450140  RH  097%=      5-min Rain = 0
KCO1 160455Z 03006KT 15/14 A2986 RMK A01 T01450141  RH  097%=      5-min Rain = 0
KCO1 160456Z 03006KT 15/14 A2986 RMK A01 T01450141  RH  097%=      5-min Rain = 0
KCO1 160457Z 02006KT 15/14 A2986 RMK A01 T01450141  RH  097%=      5-min Rain = 0
KCO1 160458Z 02007KT 14/14 A2986 RMK A01 T01440140  RH  097%=      5-min Rain = 0
KCO1 160459Z 02005KT 14/14 A2986 RMK A01 T01440140  RH  098%=      5-min Rain = 0

Page generated in 0.1137 seconds.